<- Previous Day | Today | Next Day ->

All Data for 06 August 2022

 

Time A - D Temp A - D Dew Point A - D Humidity A - D Pressure A - D Wind A - D Wind Dir Gust A - D Rain Rate A - D Rain Total
00:00 14.0 11.0 82 1029.6 3.1 NW 4.5 0.0 0.0
00:01 14.0 11.0 82 1029.6 3.1 NW 4.5 0.0 0.0
00:02 14.0 11.0 82 1029.6 2.2 N 4.5 0.0 0.0
00:03 14.0 11.0 82 1029.5 4.5 NW 4.5 0.0 0.0
00:04 14.0 11.0 82 1029.7 2.2 N 4.5 0.0 0.0
00:05 14.0 11.0 82 1029.7 2.2 N 4.5 0.0 0.0
00:06 14.0 11.0 82 1029.7 3.8 NE 4.5 0.0 0.0
00:07 14.0 11.0 82 1029.7 1.6 NW 4.5 0.0 0.0
00:08 14.0 11.0 82 1029.7 1.6 NW 4.5 0.0 0.0
00:09 14.0 11.0 82 1029.6 1.6 NW 4.5 0.0 0.0
00:10 14.0 11.0 82 1029.7 3.1 N 4.5 0.0 0.0
00:11 14.0 11.0 82 1029.8 3.1 N 4.5 0.0 0.0
00:12 14.0 11.0 82 1029.7 2.2 N 4.5 0.0 0.0
00:13 14.0 11.0 82 1029.7 2.2 NW 4.5 0.0 0.0
00:14 14.0 11.0 82 1029.6 3.8 E 4.5 0.0 0.0
00:15 14.0 11.0 82 1029.4 2.2 N 3.8 0.0 0.0
00:16 14.0 11.0 82 1029.6 1.6 N 3.8 0.0 0.0
00:17 14.0 11.0 82 1029.7 3.8 N 3.8 0.0 0.0
00:18 14.0 11.0 82 1029.7 2.2 NW 3.8 0.0 0.0
00:19 14.0 11.0 82 1029.4 3.1 N 3.8 0.0 0.0
00:20 14.0 11.0 82 1029.7 1.6 NW 3.8 0.0 0.0
00:21 14.0 11.0 82 1029.7 0.7 W 3.8 0.0 0.0
00:22 14.0 11.0 82 1029.8 2.2 N 3.8 0.0 0.0
00:23 14.0 11.0 82 1029.8 3.1 NW 3.8 0.0 0.0
00:24 14.0 11.0 82 1029.7 2.2 N 3.8 0.0 0.0
00:25 14.0 11.0 82 1029.7 2.2 N 3.8 0.0 0.0
00:26 14.0 11.0 82 1029.8 3.1 N 3.8 0.0 0.0
00:27 14.0 11.0 82 1029.6 3.1 N 3.1 0.0 0.0
00:28 14.0 11.0 82 1029.6 2.2 NW 3.1 0.0 0.0
00:29 14.0 11.0 82 1029.8 2.2 N 3.1 0.0 0.0
00:30 14.0 11.0 82 1029.7 3.1 W 3.1 0.0 0.0
00:31 14.0 11.0 82 1029.6 0.7 N 3.1 0.0 0.0
00:32 14.0 11.0 82 1029.8 1.6 N 3.1 0.0 0.0
00:33 13.9 10.9 82 1030.0 2.2 NW 3.1 0.0 0.0
00:34 13.9 10.9 82 1029.7 1.6 W 3.1 0.0 0.0
00:35 13.9 10.9 82 1029.6 2.2 N 3.1 0.0 0.0
00:36 13.9 10.9 82 1029.8 2.2 N 3.1 0.0 0.0
00:37 13.9 10.9 82 1029.7 1.6 N 3.1 0.0 0.0
00:38 13.9 10.9 82 1029.9 2.2 N 3.1 0.0 0.0
00:39 13.9 10.9 82 1029.8 1.6 N 3.1 0.0 0.0
00:40 13.9 10.9 82 1029.8 2.2 W 3.1 0.0 0.0
00:41 13.9 10.9 82 1029.7 1.6 NE 3.1 0.0 0.0
00:42 13.9 10.9 82 1029.8 0.7 NW 3.1 0.0 0.0
00:43 13.9 10.9 82 1029.7 2.2 N 3.1 0.0 0.0
00:44 13.9 10.9 82 1029.9 1.6 NW 3.1 0.0 0.0
00:45 13.8 10.8 82 1030.0 1.6 NW 3.1 0.0 0.0
00:46 13.8 10.8 82 1029.8 2.2 N 2.2 0.0 0.0
00:47 13.8 10.8 82 1029.8 3.1 NW 3.1 0.0 0.0
00:48 13.8 10.8 82 1029.9 2.2 NW 3.1 0.0 0.0
00:49 13.8 10.8 82 1029.9 2.2 WNW 3.1 0.0 0.0
00:50 13.8 10.8 82 1029.8 2.2 WNW 3.1 0.0 0.0
00:51 13.8 10.8 82 1029.7 0.7 W 3.1 0.0 0.0
00:52 13.8 10.8 82 1029.7 0.7 NW 3.1 0.0 0.0
00:53 13.8 10.8 82 1029.9 2.2 N 3.1 0.0 0.0
00:54 13.8 10.8 82 1029.8 2.2 NW 3.1 0.0 0.0
00:55 13.8 10.8 82 1029.8 3.1 NW 3.1 0.0 0.0
00:56 13.8 10.8 82 1029.8 2.2 N 3.1 0.0 0.0
00:57 13.8 10.8 82 1029.8 2.2 N 3.1 0.0 0.0
00:58 13.8 10.8 82 1029.6 2.2 N 3.1 0.0 0.0
00:59 13.7 10.7 82 1029.7 2.2 NW 3.1 0.0 0.0
01:00 13.7 10.9 83 1029.9 1.6 W 3.1 0.0 0.0
01:01 13.7 10.9 83 1029.8 1.6 W 3.1 0.0 0.0
01:02 13.7 10.9 83 1029.9 1.6 W 3.1 0.0 0.0
01:03 13.7 10.9 83 1029.7 1.6 W 3.1 0.0 0.0
01:04 13.7 10.9 83 1029.9 1.6 W 3.1 0.0 0.0
01:05 13.7 10.9 83 1029.8 1.6 W 2.2 0.0 0.0
01:06 13.7 10.9 83 1029.8 1.6 W 2.2 0.0 0.0
01:07 13.6 10.8 83 1029.9 1.6 N 2.2 0.0 0.0
01:08 13.6 10.8 83 1030.0 2.2 N 2.2 0.0 0.0
01:09 13.6 10.8 83 1030.0 2.2 N 2.2 0.0 0.0
01:10 13.6 10.8 83 1029.9 1.6 N 2.2 0.0 0.0
01:11 13.6 10.8 83 1029.8 2.2 N 2.2 0.0 0.0
01:12 13.6 10.8 83 1029.8 2.2 N 2.2 0.0 0.0
01:13 13.5 10.7 83 1029.6 0.7 NW 2.2 0.0 0.0
01:14 13.5 10.7 83 1029.9 0.7 NW 2.2 0.0 0.0
01:15 13.5 10.7 83 1029.7 2.2 N 2.2 0.0 0.0
01:16 13.5 10.7 83 1029.6 1.6 NW 2.2 0.0 0.0
01:17 13.5 10.7 83 1029.5 2.2 W 2.2 0.0 0.0
01:18 13.5 10.7 83 1029.8 3.1 NW 3.1 0.0 0.0
01:19 13.5 10.7 83 1029.8 2.2 NW 3.1 0.0 0.0
01:20 13.5 10.7 83 1029.6 1.6 N 3.1 0.0 0.0
01:21 13.5 10.7 83 1029.5 3.1 N 3.1 0.0 0.0
01:22 13.5 10.7 83 1029.8 2.2 N 3.1 0.0 0.0
01:23 13.5 10.7 83 1029.8 1.6 NW 3.1 0.0 0.0
01:24 13.5 10.9 84 1029.5 1.6 N 3.1 0.0 0.0
01:25 13.5 10.9 84 1029.7 1.6 N 3.1 0.0 0.0
01:26 13.5 10.9 84 1029.7 3.8 N 3.8 0.0 0.0
01:27 13.5 10.9 84 1029.8 3.1 NW 3.8 0.0 0.0
01:28 13.6 11.0 84 1029.7 1.6 NW 3.8 0.0 0.0
01:29 13.6 11.0 84 1029.6 4.5 N 4.5 0.0 0.0
01:30 13.6 11.0 84 1029.7 2.2 N 4.5 0.0 0.0
01:31 13.6 11.0 84 1029.6 3.1 NW 4.5 0.0 0.0
01:32 13.6 11.0 84 1029.7 1.6 NW 4.5 0.0 0.0
01:33 13.6 11.0 84 1029.6 3.1 N 4.5 0.0 0.0
01:34 13.6 11.0 84 1029.8 2.2 NW 4.5 0.0 0.0
01:35 13.6 11.0 84 1029.7 3.1 NW 4.5 0.0 0.0
01:36 13.6 11.0 84 1029.8 3.1 N 4.5 0.0 0.0
01:37 13.6 11.0 84 1029.7 1.6 N 4.5 0.0 0.0
01:38 13.6 11.0 84 1029.8 2.2 W 4.5 0.0 0.0
01:39 13.6 11.0 84 1029.6 1.6 N 4.5 0.0 0.0
01:40 13.6 11.0 84 1029.8 1.6 N 3.1 0.0 0.0
01:41 13.6 11.0 84 1029.8 1.6 NW 3.1 0.0 0.0
01:42 13.6 10.8 83 1029.8 0.7 NW 3.1 0.0 0.0
01:43 13.6 10.8 83 1029.8 1.6 N 3.1 0.0 0.0
01:44 13.6 10.8 83 1029.8 2.2 N 3.1 0.0 0.0
01:45 13.5 10.7 83 1029.5 2.2 NW 3.1 0.0 0.0
01:46 13.5 10.7 83 1029.7 3.1 NE 3.1 0.0 0.0
01:47 13.5 10.7 83 1029.6 3.1 WNW 3.8 0.0 0.0
01:48 13.5 10.7 83 1029.6 2.2 NW 3.8 0.0 0.0
01:49 13.5 10.7 83 1029.7 1.6 N 3.8 0.0 0.0
01:50 13.5 10.7 83 1029.6 1.6 W 3.8 0.0 0.0
01:51 13.5 10.7 83 1029.6 3.1 N 3.8 0.0 0.0
01:52 13.5 10.7 83 1029.6 1.6 N 3.8 0.0 0.0
01:53 13.5 10.7 83 1029.6 1.6 N 3.8 0.0 0.0
01:54 13.5 10.7 83 1029.8 2.2 N 3.8 0.0 0.0
01:55 13.5 10.7 83 1029.7 2.2 NW 3.8 0.0 0.0
01:56 13.5 10.7 83 1029.7 1.6 NE 3.8 0.0 0.0
01:57 13.5 10.7 83 1029.6 1.6 NW 3.8 0.0 0.0
01:58 13.5 10.7 83 1029.6 2.2 NE 3.1 0.0 0.0
01:59 13.5 10.7 83 1029.8 1.6 E 3.1 0.0 0.0
02:00 13.5 10.7 83 1029.6 2.2 NE 3.1 0.0 0.0
02:01 13.5 10.7 83 1029.6 2.2 NE 3.1 0.0 0.0
02:02 13.5 10.7 83 1029.5 2.2 E 2.2 0.0 0.0
02:03 13.5 10.7 83 1029.6 2.2 SE 2.2 0.0 0.0
02:04 13.4 10.6 83 1029.7 1.6 NE 2.2 0.0 0.0
02:05 13.4 10.6 83 1029.6 2.2 NE 2.2 0.0 0.0
02:06 13.4 10.6 83 1029.6 1.6 NE 2.2 0.0 0.0
02:07 13.4 10.6 83 1029.5 1.6 NE 2.2 0.0 0.0
02:08 13.4 10.6 83 1029.5 1.6 NE 2.2 0.0 0.0
02:09 13.4 10.6 83 1029.6 1.6 NW 2.2 0.0 0.0
02:10 13.3 10.5 83 1029.6 0.7 NW 2.2 0.0 0.0
02:11 13.3 10.5 83 1029.9 0.7 NW 2.2 0.0 0.0
02:12 13.3 10.5 83 1029.8 0.7 NW 2.2 0.0 0.0
02:13 13.3 10.5 83 1029.7 0.0 NW 2.2 0.0 0.0
02:14 13.2 10.4 83 1029.7 0.0 NW 2.2 0.0 0.0
02:15 13.2 10.4 83 1029.7 0.0 NW 2.2 0.0 0.0
02:16 13.2 10.4 83 1029.7 0.0 NW 1.6 0.0 0.0
02:17 13.1 10.3 83 1029.7 0.7 NW 1.6 0.0 0.0
02:18 13.1 10.3 83 1029.6 0.7 E 1.6 0.0 0.0
02:19 13.0 10.2 83 1029.7 3.8 NE 3.8 0.0 0.0
02:20 13.0 10.2 83 1029.7 3.8 N 3.8 0.0 0.0
02:21 13.0 10.2 83 1029.5 1.6 NE 3.8 0.0 0.0
02:22 12.9 10.1 83 1029.6 1.6 NE 3.8 0.0 0.0
02:23 12.9 10.1 83 1029.7 1.6 N 3.8 0.0 0.0
02:24 12.9 10.1 83 1029.7 1.6 N 3.8 0.0 0.0
02:25 12.9 10.1 83 1029.7 1.6 N 3.8 0.0 0.0
02:26 12.9 10.1 83 1029.7 0.7 N 3.8 0.0 0.0
02:27 12.9 10.1 83 1029.7 1.6 NE 3.8 0.0 0.0
02:28 12.9 10.1 83 1029.7 1.6 N 3.8 0.0 0.0
02:29 12.9 10.1 83 1029.6 0.7 N 3.8 0.0 0.0
02:30 12.8 10.2 84 1029.6 1.6 N 3.8 0.0 0.0
02:31 12.8 10.2 84 1029.5 0.7 N 3.8 0.0 0.0
02:32 12.8 10.2 84 1029.9 0.7 N 1.6 0.0 0.0
02:33 12.8 10.2 84 1029.6 0.7 E 1.6 0.0 0.0
02:34 12.8 10.2 84 1029.6 0.7 E 1.6 0.0 0.0
02:35 12.8 10.2 84 1029.8 1.6 N 1.6 0.0 0.0
02:36 12.8 10.2 84 1029.6 1.6 NE 1.6 0.0 0.0
02:37 12.7 10.1 84 1029.6 1.6 NE 1.6 0.0 0.0
02:38 12.7 10.1 84 1029.6 2.2 NE 2.2 0.0 0.0
02:39 12.7 10.1 84 1029.9 2.2 NE 2.2 0.0 0.0
02:40 12.7 10.1 84 1029.8 2.2 NE 2.2 0.0 0.0
02:41 12.7 10.1 84 1029.7 2.2 NE 2.2 0.0 0.0
02:42 12.6 10.0 84 1030.0 1.6 N 2.2 0.0 0.0
02:43 12.6 10.0 84 1029.9 1.6 N 2.2 0.0 0.0
02:44 12.6 10.0 84 1029.7 1.6 NE 2.2 0.0 0.0
02:45 12.6 10.0 84 1029.8 0.7 NE 2.2 0.0 0.0
02:46 12.6 10.0 84 1029.8 0.0 NE 2.2 0.0 0.0
02:47 12.6 10.0 84 1029.7 0.7 N 2.2 0.0 0.0
02:48 12.6 10.0 84 1029.8 0.0 N 2.2 0.0 0.0
02:49 12.6 10.0 84 1029.8 0.0 N 2.2 0.0 0.0
02:50 12.6 10.0 84 1029.6 0.7 N 2.2 0.0 0.0
02:51 12.5 9.9 84 1029.7 0.7 N 1.6 0.0 0.0
02:52 12.5 9.9 84 1029.6 0.7 N 1.6 0.0 0.0
02:53 12.5 9.9 84 1029.7 0.0 N 1.6 0.0 0.0
02:54 12.5 9.9 84 1029.8 0.0 N 0.7 0.0 0.0
02:55 12.5 9.9 84 1029.8 0.7 N 0.7 0.0 0.0
02:56 12.5 9.9 84 1029.9 0.0 N 0.7 0.0 0.0
02:57 12.5 9.9 84 1029.8 0.7 N 0.7 0.0 0.0
02:58 12.4 10.3 87 1029.7 0.0 N 0.7 0.0 0.0
02:59 12.4 10.3 87 1029.7 0.0 N 0.7 0.0 0.0
03:00 12.4 10.3 87 1029.7 0.7 N 0.7 0.0 0.0
03:01 12.4 10.3 87 1029.9 0.7 N 0.7 0.0 0.0
03:02 12.4 10.3 87 1029.7 0.7 N 0.7 0.0 0.0
03:03 12.4 10.3 87 1029.7 0.7 N 0.7 0.0 0.0
03:04 12.4 10.3 87 1029.9 0.7 N 0.7 0.0 0.0
03:05 12.4 10.3 87 1029.7 0.7 N 0.7 0.0 0.0
03:06 12.4 10.3 87 1029.8 0.7 N 0.7 0.0 0.0
03:07 12.3 10.4 88 1029.8 0.0 N 0.7 0.0 0.0
03:08 12.3 10.4 88 1029.7 0.0 N 0.7 0.0 0.0
03:09 12.3 10.4 88 1029.5 0.0 N 0.7 0.0 0.0
03:10 12.3 10.4 88 1029.8 0.0 N 0.7 0.0 0.0
03:11 12.3 10.4 88 1029.8 0.0 N 0.7 0.0 0.0
03:12 12.3 10.4 88 1029.5 0.0 N 0.7 0.0 0.0
03:13 12.3 10.4 88 1029.7 1.6 N 1.6 0.0 0.0
03:14 12.3 10.4 88 1029.4 1.6 N 1.6 0.0 0.0
03:15 12.3 10.4 88 1029.4 1.6 N 1.6 0.0 0.0
03:16 12.3 10.4 88 1029.7 0.0 N 1.6 0.0 0.0
03:17 12.3 10.4 88 1029.6 0.7 N 1.6 0.0 0.0
03:18 12.2 10.4 89 1029.6 1.6 N 1.6 0.0 0.0
03:19 12.2 10.4 89 1029.7 2.2 E 2.2 0.0 0.0
03:20 12.3 10.5 89 1029.6 1.6 NE 2.2 0.0 0.0
03:21 12.2 10.4 89 1029.7 1.6 NE 2.2 0.0 0.0
03:22 12.3 10.5 89 1029.6 1.6 E 2.2 0.0 0.0
03:23 12.2 10.4 89 1029.6 1.6 NE 2.2 0.0 0.0
03:24 12.2 10.4 89 1029.8 1.6 NNE 2.2 0.0 0.0
03:25 12.2 10.4 89 1029.8 1.6 NNE 2.2 0.0 0.0
03:26 12.2 10.4 89 1029.8 1.6 NW 2.2 0.0 0.0
03:27 12.2 10.4 89 1029.7 0.7 N 2.2 0.0 0.0
03:28 12.2 10.4 89 1029.8 0.7 N 2.2 0.0 0.0
03:29 12.2 10.4 89 1029.8 1.6 N 2.2 0.0 0.0
03:30 12.2 10.4 89 1029.6 1.6 NE 2.2 0.0 0.0
03:31 12.2 10.4 89 1029.6 1.6 NE 1.6 0.0 0.0
03:32 12.3 10.5 89 1029.6 2.2 N 2.2 0.0 0.0
03:33 12.2 10.4 89 1029.6 1.6 NE 2.2 0.0 0.0
03:34 12.2 10.4 89 1029.6 1.6 E 2.2 0.0 0.0
03:35 12.2 10.4 89 1029.6 1.6 NE 2.2 0.0 0.0
03:36 12.2 10.4 89 1029.7 1.6 NE 2.2 0.0 0.0
03:37 12.2 10.4 89 1029.6 1.6 NE 2.2 0.0 0.0
03:38 12.2 10.4 89 1029.4 2.2 N 2.2 0.0 0.0
03:39 12.2 10.4 89 1029.6 1.6 NE 2.2 0.0 0.0
03:40 12.2 10.4 89 1029.5 1.6 NE 2.2 0.0 0.0
03:41 12.2 10.4 89 1029.6 1.6 NE 2.2 0.0 0.0
03:42 12.3 10.5 89 1029.8 2.2 NE 2.2 0.0 0.0
03:43 12.3 10.5 89 1029.5 2.2 NE 2.2 0.0 0.0
03:44 12.3 10.5 89 1029.4 2.2 NE 2.2 0.0 0.0
03:45 12.3 10.5 89 1029.6 2.2 E 2.2 0.0 0.0
03:46 12.2 10.4 89 1029.6 2.2 NE 2.2 0.0 0.0
03:47 12.2 10.4 89 1029.6 2.2 NE 2.2 0.0 0.0
03:48 12.2 10.4 89 1029.9 1.6 NE 2.2 0.0 0.0
03:49 12.2 10.4 89 1029.5 1.6 NE 2.2 0.0 0.0
03:50 12.2 10.4 89 1029.6 1.6 NE 2.2 0.0 0.0
03:51 12.2 10.4 89 1029.8 1.6 N 2.2 0.0 0.0
03:52 12.2 10.4 89 1029.7 1.6 N 2.2 0.0 0.0
03:53 12.2 10.4 89 1029.7 1.6 N 2.2 0.0 0.0
03:54 12.2 10.4 89 1029.8 2.2 NE 2.2 0.0 0.0
03:55 12.2 10.4 89 1029.8 2.2 NE 2.2 0.0 0.0
03:56 12.2 10.4 89 1029.4 1.6 NE 2.2 0.0 0.0
03:57 12.2 10.4 89 1029.8 2.2 NE 2.2 0.0 0.0
03:58 12.2 10.4 89 1029.6 2.2 NE 2.2 0.0 0.0
03:59 12.2 10.4 89 1029.8 2.2 N 2.2 0.0 0.0
04:00 12.2 10.4 89 1029.7 2.2 E 2.2 0.0 0.0
04:01 12.2 10.4 89 1029.9 2.2 E 2.2 0.0 0.0
04:02 12.2 10.4 89 1029.7 1.6 E 2.2 0.0 0.0
04:03 12.2 10.4 89 1029.6 3.1 NE 3.1 0.0 0.0
04:04 12.2 10.4 89 1029.7 2.2 E 3.1 0.0 0.0
04:05 12.2 10.4 89 1029.8 3.1 E 3.1 0.0 0.0
04:06 12.2 10.4 89 1029.7 3.1 E 3.1 0.0 0.0
04:07 12.2 10.4 89 1029.9 2.2 E 3.1 0.0 0.0
04:08 12.2 10.4 89 1029.5 3.1 E 3.1 0.0 0.0
04:09 12.2 10.4 89 1029.7 2.2 NE 3.1 0.0 0.0
04:10 12.2 10.4 89 1029.8 2.2 NE 3.1 0.0 0.0
04:11 12.2 10.4 89 1029.7 1.6 N 3.1 0.0 0.0
04:12 12.2 10.4 89 1029.8 1.6 NE 3.1 0.0 0.0
04:13 12.2 10.4 89 1029.8 1.6 NE 3.1 0.0 0.0
04:14 12.2 10.4 89 1029.8 1.6 NE 3.1 0.0 0.0
04:15 12.2 10.4 89 1029.7 1.6 NE 3.1 0.0 0.0
04:16 12.2 10.4 89 1029.5 1.6 E 3.1 0.0 0.0
04:17 12.2 10.4 89 1029.7 1.6 NE 3.1 0.0 0.0
04:18 12.2 10.4 89 1029.4 2.2 NE 3.1 0.0 0.0
04:19 12.1 10.3 89 1029.6 2.2 NE 3.1 0.0 0.0
04:20 12.1 10.3 89 1029.6 2.2 NE 3.1 0.0 0.0
04:21 12.1 10.3 89 1029.6 2.2 NE 2.2 0.0 0.0
04:22 12.1 10.3 89 1029.7 2.2 N 2.2 0.0 0.0
04:23 12.1 10.3 89 1029.7 2.2 NE 2.2 0.0 0.0
04:24 12.1 10.3 89 1029.7 1.6 E 2.2 0.0 0.0
04:25 12.1 10.3 89 1029.7 3.1 E 3.1 0.0 0.0
04:26 12.1 10.3 89 1029.7 3.8 NE 3.8 0.0 0.0
04:27 12.1 10.3 89 1029.6 3.1 E 3.8 0.0 0.0
04:28 12.0 10.2 89 1029.5 3.1 NE 3.8 0.0 0.0
04:29 12.0 10.2 89 1029.5 2.2 NE 3.8 0.0 0.0
04:30 12.0 10.2 89 1029.4 2.2 E 3.8 0.0 0.0
04:31 12.0 10.2 89 1029.5 2.2 E 3.8 0.0 0.0
04:32 12.0 10.2 89 1029.7 2.2 N 3.8 0.0 0.0
04:33 12.0 10.2 89 1029.8 3.1 NE 3.8 0.0 0.0
04:34 12.0 10.2 89 1029.4 2.2 NE 3.8 0.0 0.0
04:35 12.0 10.2 89 1029.7 2.2 E 3.8 0.0 0.0
04:36 12.0 10.2 89 1029.6 1.6 NE 3.8 0.0 0.0
04:37 12.0 10.2 89 1029.7 2.2 NE 3.1 0.0 0.0
04:38 11.9 10.1 89 1029.8 3.1 E 3.1 0.0 0.0
04:39 11.9 10.1 89 1029.7 3.1 NE 3.1 0.0 0.0
04:40 11.9 10.1 89 1029.7 3.1 NE 3.1 0.0 0.0
04:41 11.9 10.1 89 1029.8 1.6 NE 3.1 0.0 0.0
04:42 11.9 10.1 89 1029.6 1.6 NE 3.1 0.0 0.0
04:43 11.9 10.1 89 1029.6 1.6 E 3.1 0.0 0.0
04:44 11.9 10.1 89 1029.7 2.2 NE 3.1 0.0 0.0
04:45 11.9 10.1 89 1029.7 3.1 NE 3.1 0.0 0.0
04:46 11.9 10.1 89 1029.8 3.1 NE 3.1 0.0 0.0
04:47 11.9 10.1 89 1029.8 2.2 NE 3.1 0.0 0.0
04:48 11.9 10.1 89 1029.6 3.1 NE 3.1 0.0 0.0
04:49 11.9 10.1 89 1029.7 2.2 NE 3.1 0.0 0.0
04:50 11.9 10.1 89 1029.5 2.2 NE 3.1 0.0 0.0
04:51 11.8 10.0 89 1029.6 1.6 E 3.1 0.0 0.0
04:52 11.8 10.0 89 1029.8 1.6 NE 3.1 0.0 0.0
04:53 11.8 10.0 89 1029.5 2.2 NE 3.1 0.0 0.0
04:54 11.8 10.0 89 1029.5 3.1 E 3.1 0.0 0.0
04:55 11.8 10.0 89 1029.7 1.6 E 3.1 0.0 0.0
04:56 11.8 10.0 89 1029.7 1.6 N 3.1 0.0 0.0
04:57 11.8 10.0 89 1029.6 1.6 N 3.1 0.0 0.0
04:58 11.8 10.0 89 1029.6 1.6 NE 3.1 0.0 0.0
04:59 11.7 10.0 89 1029.6 2.2 NE 3.1 0.0 0.0
05:00 11.7 10.0 89 1029.7 2.2 NE 3.1 0.0 0.0
05:01 11.7 10.0 89 1029.8 2.2 NE 3.1 0.0 0.0
05:02 11.7 10.0 89 1029.5 2.2 NE 3.1 0.0 0.0
05:03 11.7 10.0 89 1029.6 2.2 NE 3.1 0.0 0.0
05:04 11.7 10.0 89 1029.5 2.2 NE 3.1 0.0 0.0
05:05 11.7 10.0 89 1029.7 2.2 NE 3.1 0.0 0.0
05:06 11.7 10.0 89 1029.5 2.2 NE 2.2 0.0 0.0
05:07 11.6 9.7 88 1029.7 2.2 E 2.2 0.0 0.0
05:08 11.6 9.7 88 1029.7 2.2 NE 2.2 0.0 0.0
05:09 11.6 9.7 88 1029.7 2.2 E 2.2 0.0 0.0
05:10 11.6 9.7 88 1029.6 3.1 NE 3.1 0.0 0.0
05:11 11.5 9.6 88 1029.6 2.2 NE 3.1 0.0 0.0
05:12 11.5 9.6 88 1029.5 1.6 NE 3.1 0.0 0.0
05:13 11.5 9.6 88 1029.8 2.2 NE 3.1 0.0 0.0
05:14 11.5 9.6 88 1029.6 2.2 NE 3.1 0.0 0.0
05:15 11.5 9.6 88 1029.6 2.2 E 3.1 0.0 0.0
05:16 11.4 9.5 88 1029.7 2.2 NE 3.1 0.0 0.0
05:17 11.4 9.5 88 1029.7 1.6 NW 3.1 0.0 0.0
05:18 11.4 9.5 88 1029.7 1.6 NE 3.1 0.0 0.0
05:19 11.4 9.5 88 1029.6 1.6 N 3.1 0.0 0.0
05:20 11.4 9.7 89 1029.7 0.7 N 3.1 0.0 0.0
05:21 11.4 9.7 89 1029.6 0.7 N 2.2 0.0 0.0
05:22 11.4 9.7 89 1029.6 0.0 N 2.2 0.0 0.0
05:23 11.4 9.7 89 1029.8 0.7 N 2.2 0.0 0.0
05:24 11.4 9.7 89 1029.7 0.7 N 2.2 0.0 0.0
05:25 11.4 9.7 89 1029.6 0.7 N 2.2 0.0 0.0
05:26 11.3 9.6 89 1029.7 0.7 NE 2.2 0.0 0.0
05:27 11.3 9.6 89 1029.5 1.6 NE 1.6 0.0 0.0
05:28 11.3 9.6 89 1029.7 0.7 NE 1.6 0.0 0.0
05:29 11.3 9.6 89 1029.4 0.7 NE 1.6 0.0 0.0
05:30 11.3 9.6 89 1029.7 0.7 NE 1.6 0.0 0.0
05:31 11.2 9.5 89 1029.5 1.6 NE 1.6 0.0 0.0
05:32 11.2 9.5 89 1029.5 1.6 NE 1.6 0.0 0.0
05:33 11.2 9.5 89 1029.6 2.2 NE 2.2 0.0 0.0
05:34 11.2 9.5 89 1029.6 2.2 NE 2.2 0.0 0.0
05:35 11.1 9.4 89 1029.5 1.6 NE 2.2 0.0 0.0
05:36 11.1 9.4 89 1029.5 2.2 NE 2.2 0.0 0.0
05:37 11.1 9.2 88 1029.4 2.2 NE 2.2 0.0 0.0
05:38 11.1 9.2 88 1029.6 0.7 NE 2.2 0.0 0.0
05:39 11.0 9.3 89 1029.5 0.7 NE 2.2 0.0 0.0
05:40 11.0 9.3 89 1029.6 1.6 NE 2.2 0.0 0.0
05:41 11.0 9.3 89 1029.4 1.6 NE 2.2 0.0 0.0
05:42 11.0 9.3 89 1029.6 1.6 NW 2.2 0.0 0.0
05:43 11.0 9.3 89 1029.5 1.6 N 2.2 0.0 0.0
05:44 11.0 9.3 89 1029.6 1.6 N 2.2 0.0 0.0
05:45 11.0 9.3 89 1029.6 1.6 N 2.2 0.0 0.0
05:46 11.0 9.3 89 1029.8 2.2 N 2.2 0.0 0.0
05:47 10.9 9.2 89 1029.7 2.2 N 2.2 0.0 0.0
05:48 10.9 9.2 89 1029.6 2.2 N 2.2 0.0 0.0
05:49 10.9 9.2 89 1029.6 2.2 N 2.2 0.0 0.0
05:50 10.9 9.2 89 1029.6 1.6 NW 2.2 0.0 0.0
05:51 10.9 9.2 89 1029.7 1.6 N 2.2 0.0 0.0
05:52 10.9 9.2 89 1029.7 1.6 N 2.2 0.0 0.0
05:53 10.9 9.2 89 1029.5 1.6 NE 2.2 0.0 0.0
05:54 10.9 9.2 89 1029.5 1.6 NE 2.2 0.0 0.0
05:55 10.9 9.2 89 1029.6 0.7 NE 2.2 0.0 0.0
05:56 10.9 9.2 89 1029.6 1.6 NE 2.2 0.0 0.0
05:57 10.9 9.2 89 1029.7 1.6 NE 2.2 0.0 0.0
05:58 10.9 9.2 89 1029.5 1.6 N 2.2 0.0 0.0
05:59 10.9 9.2 89 1029.6 0.7 N 2.2 0.0 0.0
06:00 10.8 9.1 89 1029.7 0.0 N 1.6 0.0 0.0
06:01 10.8 9.1 89 1029.8 0.7 N 1.6 0.0 0.0
06:02 10.8 9.1 89 1029.7 0.0 N 1.6 0.0 0.0
06:03 10.8 9.1 89 1029.7 0.7 N 1.6 0.0 0.0
06:04 10.8 9.1 89 1029.7 0.7 N 1.6 0.0 0.0
06:05 10.8 9.1 89 1029.8 0.0 NW 1.6 0.0 0.0
06:06 10.7 9.0 89 1029.8 0.7 N 1.6 0.0 0.0
06:07 10.7 9.0 89 1029.8 1.6 NE 1.6 0.0 0.0
06:08 10.7 9.0 89 1029.7 1.6 NE 1.6 0.0 0.0
06:09 10.7 9.0 89 1029.9 2.2 NE 2.2 0.0 0.0
06:10 10.7 9.0 89 1029.9 2.2 E 2.2 0.0 0.0
06:11 10.7 9.0 89 1029.8 2.2 NE 2.2 0.0 0.0
06:12 10.6 8.9 89 1029.9 1.6 N 2.2 0.0 0.0
06:13 10.6 8.9 89 1029.8 2.2 NE 2.2 0.0 0.0
06:14 10.6 8.9 89 1029.9 1.6 N 2.2 0.0 0.0
06:15 10.6 8.9 89 1029.8 3.1 NE 3.1 0.0 0.0
06:16 10.6 8.9 89 1029.8 3.1 NE 3.1 0.0 0.0
06:17 10.6 8.9 89 1029.9 1.6 N 3.1 0.0 0.0
06:18 10.7 9.0 89 1029.8 0.7 NE 3.1 0.0 0.0
06:19 10.7 9.0 89 1030.1 1.6 NE 3.1 0.0 0.0
06:20 10.7 9.1 90 1029.7 2.2 NE 3.1 0.0 0.0
06:21 10.7 9.1 90 1029.9 1.6 N 3.1 0.0 0.0
06:22 10.7 9.1 90 1029.9 1.6 E 3.1 0.0 0.0
06:23 10.7 9.1 90 1030.0 1.6 NE 3.1 0.0 0.0
06:24 10.7 9.1 90 1029.9 1.6 E 3.1 0.0 0.0
06:25 10.7 9.1 90 1030.2 1.6 NE 3.1 0.0 0.0
06:26 10.7 9.1 90 1029.8 1.6 N 3.1 0.0 0.0
06:27 10.7 9.1 90 1029.9 1.6 N 3.1 0.0 0.0
06:28 10.7 9.1 90 1029.9 0.7 NE 2.2 0.0 0.0
06:29 10.7 9.1 90 1029.8 1.6 N 2.2 0.0 0.0
06:30 10.7 9.1 90 1030.0 1.6 NE 2.2 0.0 0.0
06:31 10.7 9.1 90 1030.0 1.6 E 1.6 0.0 0.0
06:32 10.7 9.1 90 1030.0 1.6 NE 1.6 0.0 0.0
06:33 10.7 9.1 90 1029.8 2.2 NE 2.2 0.0 0.0
06:34 10.7 9.1 90 1029.7 1.6 NE 2.2 0.0 0.0
06:35 10.7 9.1 90 1030.0 1.6 N 2.2 0.0 0.0
06:36 10.7 9.1 90 1029.9 1.6 N 2.2 0.0 0.0
06:37 10.7 9.1 90 1029.9 1.6 N 2.2 0.0 0.0
06:38 10.7 9.1 90 1029.9 0.7 NE 2.2 0.0 0.0
06:39 10.7 9.1 90 1030.1 0.7 NE 2.2 0.0 0.0
06:40 10.7 9.1 90 1029.7 0.7 NE 2.2 0.0 0.0
06:41 10.7 9.1 90 1029.9 0.7 N 2.2 0.0 0.0
06:42 10.7 9.1 90 1030.2 1.6 NE 2.2 0.0 0.0
06:43 10.7 9.1 90 1030.0 1.6 NE 2.2 0.0 0.0
06:44 10.8 9.2 90 1030.0 1.6 N 1.6 0.0 0.0
06:45 10.8 9.2 90 1029.9 1.6 NE 1.6 0.0 0.0
06:46 10.8 9.2 90 1029.9 1.6 N 1.6 0.0 0.0
06:47 10.8 9.2 90 1030.0 1.6 N 1.6 0.0 0.0
06:48 10.8 9.2 90 1030.0 1.6 NE 1.6 0.0 0.0
06:49 10.8 9.2 90 1030.1 1.6 N 1.6 0.0 0.0
06:50 10.8 9.2 90 1030.1 2.2 N 2.2 0.0 0.0
06:51 10.8 9.2 90 1030.1 1.6 N 2.2 0.0 0.0
06:52 10.8 9.2 90 1030.2 0.7 N 2.2 0.0 0.0
06:53 10.8 9.2 90 1030.2 0.7 N 2.2 0.0 0.0
06:54 10.8 9.2 90 1030.2 1.6 N 2.2 0.0 0.0
06:55 10.9 9.3 90 1030.2 1.6 NE 2.2 0.0 0.0
06:56 10.9 9.5 91 1030.1 0.7 NE 2.2 0.0 0.0
06:57 10.9 9.5 91 1030.2 0.7 N 2.2 0.0 0.0
06:58 10.9 9.5 91 1030.1 0.7 N 2.2 0.0 0.0
06:59 10.9 9.5 91 1030.3 0.7 N 2.2 0.0 0.0
07:00 10.9 9.5 91 1030.3 0.0 N 2.2 0.0 0.0
07:01 10.9 9.5 91 1030.1 0.0 N 1.6 0.0 0.0
07:02 10.9 9.5 91 1030.2 0.0 N 1.6 0.0 0.0
07:03 10.9 9.5 91 1030.3 0.0 N 1.6 0.0 0.0
07:04 10.9 9.5 91 1030.1 0.0 N 1.6 0.0 0.0
07:05 10.9 9.5 91 1030.4 0.0 N 0.7 0.0 0.0
07:06 10.9 9.5 91 1030.2 1.6 N 1.6 0.0 0.0
07:07 11.0 9.6 91 1030.2 1.6 N 1.6 0.0 0.0
07:08 11.0 9.6 91 1030.2 1.6 N 1.6 0.0 0.0
07:09 11.0 9.6 91 1030.3 1.6 N 1.6 0.0 0.0
07:10 11.0 9.6 91 1030.4 1.6 N 1.6 0.0 0.0
07:11 11.1 9.7 91 1030.0 1.6 N 1.6 0.0 0.0
07:12 11.1 9.7 91 1030.5 0.7 N 1.6 0.0 0.0
07:13 11.1 9.7 91 1030.2 2.2 NE 2.2 0.0 0.0
07:14 11.1 9.7 91 1030.2 1.6 N 2.2 0.0 0.0
07:15 11.1 9.7 91 1030.3 0.7 N 2.2 0.0 0.0
07:16 11.2 9.8 91 1030.3 0.7 N 2.2 0.0 0.0
07:17 11.2 9.8 91 1030.4 0.7 N 2.2 0.0 0.0
07:18 11.2 9.8 91 1030.3 1.6 N 2.2 0.0 0.0
07:19 11.2 9.8 91 1030.3 2.2 NW 2.2 0.0 0.0
07:20 11.3 9.9 91 1030.3 2.2 NW 2.2 0.0 0.0
07:21 11.3 9.9 91 1030.4 1.6 NE 2.2 0.0 0.0
07:22 11.3 9.9 91 1030.4 3.1 NNE 3.1 0.0 0.0
07:23 11.4 10.0 91 1030.1 1.6 NE 3.1 0.0 0.0
07:24 11.4 10.0 91 1030.3 1.6 N 3.1 0.0 0.0
07:25 11.5 10.1 91 1030.2 1.6 NE 3.1 0.0 0.0
07:26 11.5 10.1 91 1030.4 1.6 N 3.1 0.0 0.0
07:27 11.5 10.1 91 1030.2 2.2 NNE 3.1 0.0 0.0
07:28 11.5 10.1 91 1030.2 2.2 NNE 3.1 0.0 0.0
07:29 11.5 10.1 91 1030.2 2.2 NE 3.1 0.0 0.0
07:30 11.6 10.2 91 1030.2 2.2 N 3.1 0.0 0.0
07:31 11.6 10.2 91 1030.3 3.1 N 3.1 0.0 0.0
07:32 11.7 10.3 91 1030.2 2.2 NE 3.1 0.0 0.0
07:33 11.7 10.3 91 1030.4 1.6 NE 3.1 0.0 0.0
07:34 11.7 10.3 91 1030.3 2.2 NE 3.1 0.0 0.0
07:35 11.7 10.3 91 1030.3 2.2 NE 3.1 0.0 0.0
07:36 11.8 10.4 91 1030.3 3.1 N 3.1 0.0 0.0
07:37 11.8 10.4 91 1030.3 2.2 NE 3.1 0.0 0.0
07:38 11.8 10.4 91 1030.3 2.2 N 3.1 0.0 0.0
07:39 11.9 10.5 91 1030.2 3.1 N 3.1 0.0 0.0
07:40 11.9 10.5 91 1030.6 1.6 N 3.1 0.0 0.0
07:41 11.9 10.5 91 1030.1 1.6 N 3.1 0.0 0.0
07:42 11.9 10.5 91 1030.4 1.6 N 3.1 0.0 0.0
07:43 12.0 10.6 91 1030.5 2.2 N 3.1 0.0 0.0
07:44 12.0 10.6 91 1030.5 2.2 N 3.1 0.0 0.0
07:45 12.0 10.6 91 1030.1 2.2 N 3.1 0.0 0.0
07:46 12.1 10.7 91 1030.2 3.8 NE 3.8 0.0 0.0
07:47 12.1 10.7 91 1030.2 3.1 N 3.8 0.0 0.0
07:48 12.1 10.7 91 1030.4 3.1 NW 3.8 0.0 0.0
07:49 12.1 10.7 91 1030.4 2.2 N 3.8 0.0 0.0
07:50 12.2 10.8 91 1030.5 3.8 NNE 3.8 0.0 0.0
07:51 12.2 10.6 90 1030.3 3.1 NE 3.8 0.0 0.0
07:52 12.3 10.7 90 1030.4 3.1 NE 3.8 0.0 0.0
07:53 12.3 10.7 90 1030.4 2.2 NE 3.8 0.0 0.0
07:54 12.3 10.7 90 1030.5 1.6 N 3.8 0.0 0.0
07:55 12.3 10.7 90 1030.4 1.6 N 3.8 0.0 0.0
07:56 12.4 10.8 90 1030.5 4.5 E 4.5 0.0 0.0
07:57 12.4 10.8 90 1030.3 3.1 N 4.5 0.0 0.0
07:58 12.5 10.4 87 1030.4 3.1 NE 4.5 0.0 0.0
07:59 12.5 10.4 87 1030.4 3.8 N 4.5 0.0 0.0
08:00 12.6 10.5 87 1030.6 3.8 N 4.5 0.0 0.0
08:01 12.6 10.5 87 1030.3 3.8 N 4.5 0.0 0.0
08:02 12.6 10.5 87 1030.5 3.8 N 4.5 0.0 0.0
08:03 12.6 10.5 87 1030.5 3.8 N 4.5 0.0 0.0
08:04 12.6 10.5 87 1030.7 3.8 N 4.5 0.0 0.0
08:05 12.6 10.5 87 1030.6 3.8 N 4.5 0.0 0.0
08:06 12.6 10.5 87 1030.6 3.8 N 4.5 0.0 0.0
08:07 12.9 10.6 86 1030.4 5.4 NE 5.4 0.0 0.0
08:08 12.9 10.6 86 1030.8 3.8 N 5.4 0.0 0.0
08:09 12.9 10.6 86 1030.7 3.8 NE 5.4 0.0 0.0
08:10 13.0 10.7 86 1030.6 3.1 N 5.4 0.0 0.0
08:11 13.0 10.7 86 1030.4 3.8 N 5.4 0.0 0.0
08:12 13.1 10.6 85 1030.4 3.8 N 5.4 0.0 0.0
08:13 13.1 10.6 85 1030.8 3.8 NW 5.4 0.0 0.0
08:14 13.1 10.6 85 1030.4 2.2 E 5.4 0.0 0.0
08:15 13.2 10.7 85 1030.7 4.5 NW 5.4 0.0 0.0
08:16 13.2 10.7 85 1030.6 3.8 E 5.4 0.0 0.0
08:17 13.2 10.6 84 1030.6 5.4 N 5.4 0.0 0.0
08:18 13.3 10.7 84 1030.7 4.5 N 5.4 0.0 0.0
08:19 13.3 10.7 84 1030.7 3.8 NE 5.4 0.0 0.0
08:20 13.3 10.7 84 1030.5 4.5 SE 5.4 0.0 0.0
08:21 13.4 10.8 84 1030.4 3.1 N 5.4 0.0 0.0
08:22 13.4 10.6 83 1030.6 4.5 E 5.4 0.0 0.0
08:23 13.4 10.6 83 1030.6 4.5 N 5.4 0.0 0.0
08:24 13.5 10.7 83 1030.5 2.2 NW 5.4 0.0 0.0
08:25 13.5 10.7 83 1030.6 4.5 N 5.4 0.0 0.0
08:26 13.5 10.7 83 1030.6 3.1 NE 5.4 0.0 0.0
08:27 13.6 10.8 83 1030.6 4.5 NE 5.4 0.0 0.0
08:28 13.6 10.6 82 1030.7 3.8 N 4.5 0.0 0.0
08:29 13.7 10.7 82 1030.7 5.4 N 5.4 0.0 0.0
08:30 13.7 10.7 82 1030.7 4.5 NE 5.4 0.0 0.0
08:31 13.7 10.7 82 1030.6 3.8 N 5.4 0.0 0.0
08:32 13.8 10.8 82 1030.9 4.5 N 5.4 0.0 0.0
08:33 13.8 10.6 81 1030.6 3.1 N 5.4 0.0 0.0
08:34 13.8 10.6 81 1030.7 4.5 NE 5.4 0.0 0.0
08:35 13.8 10.6 81 1030.6 5.4 NE 5.4 0.0 0.0
08:36 13.9 10.7 81 1030.5 5.4 E 5.4 0.0 0.0
08:37 13.9 10.7 81 1030.6 7.6 NE 7.6 0.0 0.0
08:38 14.0 10.6 80 1030.7 2.2 N 7.6 0.0 0.0
08:39 14.0 10.6 80 1030.7 3.1 N 7.6 0.0 0.0
08:40 14.0 10.6 80 1030.6 5.4 NE 7.6 0.0 0.0
08:41 14.1 10.7 80 1030.6 5.4 NE 7.6 0.0 0.0
08:42 14.1 10.7 80 1030.7 5.4 E 7.6 0.0 0.0
08:43 14.1 10.7 80 1030.8 3.1 N 7.6 0.0 0.0
08:44 14.2 10.6 79 1030.8 3.1 NE 7.6 0.0 0.0
08:45 14.2 10.6 79 1030.5 3.1 NE 7.6 0.0 0.0
08:46 14.2 10.6 79 1030.7 3.1 E 7.6 0.0 0.0
08:47 14.3 10.7 79 1030.7 4.5 NE 6.0 0.0 0.0
08:48 14.3 10.7 79 1030.8 1.6 S 6.0 0.0 0.0
08:49 14.3 10.7 79 1030.8 5.4 NE 6.0 0.0 0.0
08:50 14.3 10.7 79 1030.7 4.5 NE 6.0 0.0 0.0
08:51 14.3 10.7 79 1030.7 3.1 NW 6.0 0.0 0.0
08:52 14.4 10.6 78 1030.8 3.1 NE 5.4 0.0 0.0
08:53 14.4 10.6 78 1030.6 6.0 NE 6.0 0.0 0.0
08:54 14.4 10.6 78 1030.6 4.5 NE 6.0 0.0 0.0
08:55 14.4 10.4 77 1030.8 5.4 E 6.0 0.0 0.0
08:56 14.5 10.5 77 1030.8 4.5 NE 6.0 0.0 0.0
08:57 14.5 10.5 77 1030.6 4.5 N 6.0 0.0 0.0
08:58 14.5 10.5 77 1030.6 5.4 E 6.0 0.0 0.0
08:59 14.6 10.4 76 1030.7 2.2 NE 6.0 0.0 0.0
09:00 14.6 10.4 76 1030.7 3.8 E 6.0 0.0 0.0
09:01 14.6 10.4 76 1030.7 3.8 E 6.0 0.0 0.0
09:02 14.6 10.4 76 1030.7 3.8 E 6.0 0.0 0.0
09:03 14.6 10.4 76 1030.8 3.8 E 5.4 0.0 0.0
09:04 14.6 10.4 76 1030.8 3.8 E 5.4 0.0 0.0
09:05 14.6 10.4 76 1030.7 3.8 E 5.4 0.0 0.0
09:06 14.6 10.4 76 1030.7 3.8 E 5.4 0.0 0.0
09:07 14.6 10.4 76 1030.8 3.8 E 5.4 0.0 0.0
09:08 14.9 10.3 74 1030.7 4.5 NE 4.5 0.0 0.0
09:09 14.9 10.1 73 1030.7 4.5 E 4.5 0.0 0.0
09:10 15.0 10.2 73 1030.7 6.0 E 6.0 0.0 0.0
09:11 15.0 10.2 73 1030.7 6.0 NE 6.0 0.0 0.0
09:12 15.0 10.2 73 1030.7 6.0 NE 6.0 0.0 0.0
09:13 15.1 10.3 73 1030.8 4.5 N 6.0 0.0 0.0
09:14 15.1 10.3 73 1030.8 4.5 NNE 6.0 0.0 0.0
09:15 15.1 10.3 73 1030.7 3.8 E 6.0 0.0 0.0
09:16 15.2 10.2 72 1030.7 2.2 N 6.0 0.0 0.0
09:17 15.2 10.2 72 1030.7 3.1 NE 6.0 0.0 0.0
09:18 15.2 10.2 72 1030.8 6.9 NE 6.9 0.0 0.0
09:19 15.3 10.3 72 1030.9 6.9 NE 6.9 0.0 0.0
09:20 15.3 10.3 72 1030.8 3.8 E 6.9 0.0 0.0
09:21 15.4 10.2 71 1030.8 4.5 NE 6.9 0.0 0.0
09:22 15.4 10.2 71 1030.9 6.9 N 6.9 0.0 0.0
09:23 15.4 10.2 71 1030.8 3.8 NW 6.9 0.0 0.0
09:24 15.5 10.3 71 1030.8 6.0 NE 6.9 0.0 0.0
09:25 15.5 10.3 71 1030.9 4.5 N 6.9 0.0 0.0
09:26 15.6 10.4 71 1030.7 3.8 E 6.9 0.0 0.0
09:27 15.6 10.4 71 1030.7 3.8 NE 6.9 0.0 0.0
09:28 15.7 10.5 71 1030.8 5.4 E 6.9 0.0 0.0
09:29 15.7 10.5 71 1030.8 5.4 NE 6.9 0.0 0.0
09:30 15.7 10.3 70 1030.7 7.6 NE 7.6 0.0 0.0
09:31 15.8 10.3 70 1030.6 6.0 NE 7.6 0.0 0.0
09:32 15.8 10.3 70 1030.7 5.4 W 7.6 0.0 0.0
09:33 15.8 10.3 70 1030.7 3.1 N 7.6 0.0 0.0
09:34 15.9 10.4 70 1030.9 3.8 E 7.6 0.0 0.0
09:35 15.9 10.4 70 1030.7 4.5 E 7.6 0.0 0.0
09:36 15.9 10.4 70 1030.6 2.2 NE 7.6 0.0 0.0
09:37 16.0 10.5 70 1030.7 3.8 ESE 7.6 0.0 0.0
09:38 16.0 10.5 70 1030.8 6.0 NE 7.6 0.0 0.0
09:39 16.0 10.5 70 1030.7 5.4 N 7.6 0.0 0.0
09:40 16.1 10.6 70 1030.7 6.9 SE 6.9 0.0 0.0
09:41 16.1 10.4 69 1030.9 3.8 NE 6.9 0.0 0.0
09:42 16.2 10.5 69 1030.7 4.5 NE 6.9 0.0 0.0
09:43 16.2 10.5 69 1031.0 6.0 NE 6.9 0.0 0.0
09:44 16.3 10.6 69 1031.0 4.5 NE 6.9 0.0 0.0
09:45 16.3 10.6 69 1030.8 4.5 NE 6.9 0.0 0.0
09:46 16.3 10.6 69 1030.8 3.1 N 6.9 0.0 0.0
09:47 16.4 10.7 69 1030.9 3.1 NW 6.9 0.0 0.0
09:48 16.4 10.7 69 1030.9 4.5 NE 6.9 0.0 0.0
09:49 16.4 10.7 69 1030.9 4.5 NE 6.9 0.0 0.0
09:50 16.5 10.8 69 1030.7 5.4 NNE 7.6 0.0 0.0
09:51 16.5 10.8 69 1030.9 6.9 NE 7.6 0.0 0.0
09:52 16.6 10.9 69 1030.7 4.5 NE 7.6 0.0 0.0
09:53 16.6 10.9 69 1030.8 3.8 NE 7.6 0.0 0.0
09:54 16.6 10.7 68 1030.8 4.5 NW 7.6 0.0 0.0
09:55 16.7 10.8 68 1031.0 3.8 NE 7.6 0.0 0.0
09:56 16.7 10.8 68 1030.7 3.1 N 7.6 0.0 0.0
09:57 16.7 10.8 68 1030.8 3.8 E 7.6 0.0 0.0
09:58 16.8 10.6 67 1030.9 5.4 NE 7.6 0.0 0.0
09:59 16.8 10.6 67 1030.9 3.1 E 7.6 0.0 0.0
10:00 16.9 10.7 67 1030.9 3.1 NE 6.9 0.0 0.0
10:01 16.9 10.7 67 1030.9 3.8 E 5.4 0.0 0.0
10:02 17.0 10.8 67 1031.0 3.8 NE 5.4 0.0 0.0
10:03 17.0 10.8 67 1030.9 5.4 NNE 5.4 0.0 0.0
10:04 17.1 10.9 67 1030.8 4.5 NE 5.4 0.0 0.0
10:05 17.1 10.9 67 1030.8 4.5 N 5.4 0.0 0.0
10:06 17.1 10.9 67 1030.8 3.8 NE 5.4 0.0 0.0
10:07 17.1 10.7 66 1031.1 3.8 N 5.4 0.0 0.0
10:08 17.2 10.8 66 1030.9 3.1 NE 5.4 0.0 0.0
10:09 17.2 10.8 66 1030.7 4.5 E 5.4 0.0 0.0
10:10 17.3 10.9 66 1030.7 4.5 NE 7.6 0.0 0.0
10:11 17.3 10.9 66 1030.8 3.8 E 7.6 0.0 0.0
10:12 17.3 10.9 66 1030.9 3.1 W 7.6 0.0 0.0
10:13 17.3 10.7 65 1031.0 1.6 NW 7.6 0.0 0.0
10:14 17.4 10.8 65 1030.8 3.1 NE 7.6 0.0 0.0
10:15 17.4 10.8 65 1030.8 6.0 NE 7.6 0.0 0.0
10:16 17.4 10.8 65 1030.7 6.9 N 7.6 0.0 0.0
10:17 17.4 10.8 65 1031.0 3.8 E 7.6 0.0 0.0
10:18 17.5 9.9 61 1031.0 6.0 NE 7.6 0.0 0.0
10:19 17.5 9.9 61 1030.8 4.5 NE 7.6 0.0 0.0
10:20 17.6 10.0 61 1031.0 3.1 NE 6.9 0.0 0.0
10:21 17.6 10.0 61 1031.1 3.8 NE 6.9 0.0 0.0
10:22 17.6 10.0 61 1030.9 2.2 N 6.9 0.0 0.0
10:23 17.7 10.1 61 1030.8 3.1 NE 6.9 0.0 0.0
10:24 17.7 9.8 60 1030.7 2.2 E 6.9 0.0 0.0
10:25 17.7 9.8 60 1031.1 3.8 NE 6.9 0.0 0.0
10:26 17.7 9.8 60 1030.8 3.8 N 6.0 0.0 0.0
10:27 17.8 9.9 60 1030.9 3.8 NE 6.0 0.0 0.0
10:28 17.8 9.9 60 1031.1 3.8 SE 6.0 0.0 0.0
10:29 17.8 9.9 60 1030.8 4.5 S 4.5 0.0 0.0
10:30 17.8 9.9 60 1031.1 5.4 W 5.4 0.0 0.0
10:31 17.8 9.9 60 1031.1 4.5 SE 5.4 0.0 0.0
10:32 17.9 10.0 60 1030.9 4.5 E 5.4 0.0 0.0
10:33 17.9 10.0 60 1031.2 5.4 W 5.4 0.0 0.0
10:34 17.9 10.0 60 1031.0 5.4 NE 5.4 0.0 0.0
10:35 18.0 10.1 60 1031.1 5.4 NE 5.4 0.0 0.0
10:36 18.0 10.1 60 1031.0 6.0 NE 6.0 0.0 0.0
10:37 18.1 10.2 60 1030.9 9.8 E 9.8 0.0 0.0
10:38 18.1 10.5 61 1031.1 9.8 NE 9.8 0.0 0.0
10:39 18.1 10.5 61 1031.0 6.0 NE 9.8 0.0 0.0
10:40 18.2 10.3 60 1030.9 3.8 N 9.8 0.0 0.0
10:41 18.2 10.3 60 1030.9 3.8 E 9.8 0.0 0.0
10:42 18.3 10.4 60 1030.9 6.0 NE 9.8 0.0 0.0
10:43 18.3 10.4 60 1030.9 5.4 NNE 9.8 0.0 0.0
10:44 18.4 10.5 60 1031.0 6.9 NE 9.8 0.0 0.0
10:45 18.4 10.5 60 1030.9 4.5 NE 9.8 0.0 0.0
10:46 18.5 10.6 60 1030.9 4.5 SW 9.8 0.0 0.0
10:47 18.5 10.6 60 1031.0 4.5 SW 9.8 0.0 0.0
10:48 18.5 10.6 60 1031.0 4.5 SW 9.8 0.0 0.0
10:49 18.6 10.4 59 1030.8 3.8 S 6.9 0.0 0.0
10:50 18.7 10.5 59 1031.1 5.4 S 6.9 0.0 0.0
10:51 18.7 10.5 59 1031.0 5.4 N 6.9 0.0 0.0
10:52 18.8 10.6 59 1031.0 5.4 SW 6.9 0.0 0.0
10:53 18.8 10.6 59 1031.0 3.8 SE 6.9 0.0 0.0
10:54 18.8 10.4 58 1031.0 3.8 S 6.9 0.0 0.0
10:55 18.8 9.8 56 1031.0 3.8 SW 5.4 0.0 0.0
10:56 18.8 9.8 56 1030.9 4.5 SE 5.4 0.0 0.0
10:57 18.8 10.1 57 1031.0 5.4 E 5.4 0.0 0.0
10:58 18.9 10.7 59 1031.0 7.6 N 7.6 0.0 0.0
10:59 19.0 10.8 59 1031.1 5.4 SE 7.6 0.0 0.0
11:00 19.1 10.9 59 1030.9 5.4 NE 7.6 0.0 0.0
11:01 19.1 10.9 59 1030.9 5.4 NE 7.6 0.0 0.0
11:02 19.1 10.9 59 1031.1 5.4 NE 7.6 0.0 0.0
11:03 19.1 10.9 59 1030.9 5.4 NE 7.6 0.0 0.0
11:04 19.1 10.9 59 1031.0 5.4 NE 7.6 0.0 0.0
11:05 19.1 10.9 59 1031.0 5.4 NE 7.6 0.0 0.0
11:06 19.4 10.4 56 1030.8 3.1 NE 7.6 0.0 0.0
11:07 19.4 10.4 56 1031.0 4.5 S 7.6 0.0 0.0
11:08 19.4 10.1 55 1031.0 4.5 S 7.6 0.0 0.0
11:09 19.4 10.1 55 1031.2 4.5 NW 6.9 0.0 0.0
11:10 19.4 10.1 55 1031.1 6.0 NE 6.9 0.0 0.0
11:11 19.5 10.8 57 1030.9 3.8 NE 6.9 0.0 0.0
11:12 19.6 11.4 59 1030.9 6.0 NE 6.9 0.0 0.0
11:13 19.8 11.6 59 1031.0 8.3 E 8.3 0.0 0.0
11:14 20.0 11.5 58 1031.0 3.8 NE 8.3 0.0 0.0
11:15 20.1 11.6 58 1031.1 3.1 SE 8.3 0.0 0.0
11:16 20.2 11.4 57 1031.2 4.5 NE 8.3 0.0 0.0
11:17 20.2 11.2 56 1031.2 3.8 S 8.3 0.0 0.0
11:18 20.2 10.9 55 1031.0 3.8 N 8.3 0.0 0.0
11:19 20.2 10.9 55 1030.9 3.1 NE 8.3 0.0 0.0
11:20 20.3 11.2 56 1030.9 2.2 NW 8.3 0.0 0.0
11:21 20.3 11.0 55 1031.0 4.5 W 8.3 0.0 0.0
11:22 20.3 11.0 55 1030.7 3.8 NE 8.3 0.0 0.0
11:23 20.3 11.2 56 1031.0 3.1 NE 5.4 0.0 0.0
11:24 20.4 11.1 55 1031.1 3.1 N 4.5 0.0 0.0
11:25 20.4 11.1 55 1030.9 2.2 S 4.5 0.0 0.0
11:26 20.4 11.1 55 1030.9 3.1 S 4.5 0.0 0.0
11:27 20.5 11.4 56 1031.0 3.8 SE 4.5 0.0 0.0
11:28 20.4 10.8 54 1031.0 3.1 SW 4.5 0.0 0.0
11:29 20.4 11.1 55 1031.1 3.1 S 4.5 0.0 0.0
11:30 20.4 11.1 55 1031.0 3.8 W 4.5 0.0 0.0
11:31 20.5 11.2 55 1031.0 3.1 SW 4.5 0.0 0.0
11:32 20.5 11.7 57 1031.0 5.4 NE 5.4 0.0 0.0
11:33 20.6 11.5 56 1031.2 3.1 S 5.4 0.0 0.0
11:34 20.7 11.3 55 1030.9 3.1 W 5.4 0.0 0.0
11:35 20.7 11.3 55 1031.1 3.1 W 5.4 0.0 0.0
11:36 20.7 11.3 55 1031.0 2.2 E 5.4 0.0 0.0
11:37 20.7 11.3 55 1031.1 6.0 NE 6.0 0.0 0.0
11:38 20.8 11.4 55 1031.1 6.0 NE 6.0 0.0 0.0
11:39 20.9 11.5 55 1030.9 9.2 W 9.2 0.0 0.0
11:40 20.9 11.0 53 1031.1 6.0 E 9.2 0.0 0.0
11:41 20.9 11.0 53 1031.1 6.0 NE 9.2 0.0 0.0
11:42 20.9 11.3 54 1031.0 2.2 SE 9.2 0.0 0.0
11:43 20.9 11.3 54 1031.0 2.2 S 9.2 0.0 0.0
11:44 20.9 11.0 53 1031.0 3.1 SW 9.2 0.0 0.0
11:45 20.9 11.3 54 1031.1 3.1 N 9.2 0.0 0.0
11:46 20.9 11.3 54 1031.1 2.2 N 9.2 0.0 0.0
11:47 20.9 11.3 54 1030.9 3.1 NE 9.2 0.0 0.0
11:48 21.0 11.3 54 1031.0 6.0 NE 9.2 0.0 0.0
11:49 21.0 11.3 54 1031.0 6.0 NE 9.2 0.0 0.0
11:50 21.1 11.2 53 1031.0 1.6 SW 9.2 0.0 0.0
11:51 21.1 11.4 54 1031.2 1.6 SW 6.0 0.0 0.0
11:52 21.1 11.2 53 1031.2 3.8 N 6.0 0.0 0.0
11:53 21.1 11.4 54 1031.1 3.8 SW 6.0 0.0 0.0
11:54 21.1 11.7 55 1031.1 6.0 SW 6.0 0.0 0.0
11:55 21.1 11.4 54 1031.1 6.0 S 6.0 0.0 0.0
11:56 21.0 11.1 53 1031.0 2.2 SW 6.0 0.0 0.0
11:57 21.0 11.1 53 1030.8 2.2 W 6.0 0.0 0.0
11:58 21.0 11.1 53 1030.8 2.2 SW 6.0 0.0 0.0
11:59 21.0 11.3 54 1031.0 6.0 S 6.0 0.0 0.0
12:00 21.1 11.4 54 1030.9 6.0 N 6.0 0.0 0.0
12:01 21.1 11.4 54 1031.0 6.0 N 6.0 0.0 0.0
12:02 21.1 11.4 54 1030.9 6.0 N 6.0 0.0 0.0
12:03 21.3 12.2 56 1030.7 4.5 W 6.0 0.0 0.0
12:04 21.4 11.4 53 1030.8 6.0 SW 6.0 0.0 0.0
12:05 21.4 11.4 53 1030.9 2.2 SE 6.0 0.0 0.0
12:06 21.4 11.4 53 1031.0 3.1 NE 6.0 0.0 0.0
12:07 21.4 11.4 53 1030.9 2.2 N 6.0 0.0 0.0
12:08 21.5 12.1 55 1030.8 2.2 NW 6.0 0.0 0.0
12:09 21.6 12.2 55 1030.8 4.5 N 6.0 0.0 0.0
12:10 21.7 12.3 55 1030.7 7.6 E 7.6 0.0 0.0
12:11 21.8 12.1 54 1030.7 5.4 N 7.6 0.0 0.0
12:12 21.8 11.8 53 1030.9 6.0 ESE 7.6 0.0 0.0
12:13 21.7 11.7 53 1030.9 3.8 NE 7.6 0.0 0.0
12:14 21.7 11.7 53 1031.0 5.4 N 7.6 0.0 0.0
12:15 21.6 11.6 53 1030.9 2.2 E 7.6 0.0 0.0
12:16 21.5 11.5 53 1030.6 4.5 SW 7.6 0.0 0.0
12:17 21.5 11.5 53 1030.8 6.9 NE 7.6 0.0 0.0
12:18 21.5 11.8 54 1030.7 4.5 N 7.6 0.0 0.0
12:19 21.5 12.1 55 1030.8 5.4 E 7.6 0.0 0.0
12:20 21.6 12.2 55 1030.9 4.5 S 6.9 0.0 0.0
12:21 21.6 12.2 55 1030.8 4.5 N 6.9 0.0 0.0
12:22 21.6 11.9 54 1030.9 5.4 E 6.9 0.0 0.0
12:23 21.7 12.3 55 1030.7 4.5 NE 6.9 0.0 0.0
12:24 21.7 12.0 54 1030.9 2.2 NE 6.9 0.0 0.0
12:25 21.7 12.0 54 1030.8 6.9 NE 6.9 0.0 0.0
12:26 21.7 12.0 54 1030.9 5.4 SSW 6.9 0.0 0.0
12:27 21.7 12.0 54 1030.8 3.1 NE 6.9 0.0 0.0
12:28 21.7 12.0 54 1030.7 3.1 NE 6.9 0.0 0.0
12:29 21.7 12.0 54 1030.7 3.1 E 6.9 0.0 0.0
12:30 21.7 11.7 53 1031.0 2.2 SSE 6.9 0.0 0.0
12:31 21.7 11.7 53 1030.7 2.2 S 6.9 0.0 0.0
12:32 21.7 11.7 53 1030.9 3.8 SW 6.9 0.0 0.0
12:33 21.7 11.7 53 1030.8 3.8 NE 6.9 0.0 0.0
12:34 21.6 11.3 52 1030.7 4.5 S 6.9 0.0 0.0
12:35 21.5 11.0 51 1030.8 5.4 S 6.9 0.0 0.0
12:36 21.4 11.2 52 1030.9 5.4 E 5.4 0.0 0.0
12:37 21.5 11.8 54 1030.7 6.9 W 6.9 0.0 0.0
12:38 21.5 12.1 55 1030.8 2.2 NW 6.9 0.0 0.0
12:39 21.6 11.9 54 1030.9 1.6 SE 6.9 0.0 0.0
12:40 21.7 11.7 53 1030.8 3.8 NW 6.9 0.0 0.0
12:41 21.8 12.1 54 1030.7 3.1 NE 6.9 0.0 0.0
12:42 21.8 11.8 53 1030.6 3.1 NE 6.9 0.0 0.0
12:43 21.9 12.2 54 1030.8 2.2 SE 6.9 0.0 0.0
12:44 21.9 11.9 53 1030.5 6.0 SW 6.9 0.0 0.0
12:45 21.8 11.5 52 1030.7 5.4 N 6.9 0.0 0.0
12:46 21.9 11.9 53 1030.6 3.1 S 6.9 0.0 0.0
12:47 21.9 11.9 53 1030.6 3.1 S 6.9 0.0 0.0
12:48 22.0 12.0 53 1030.8 6.0 NE 6.0 0.0 0.0
12:49 22.0 12.0 53 1030.7 6.0 NE 6.0 0.0 0.0
12:50 22.2 12.5 54 1030.7 3.8 SW 6.0 0.0 0.0
12:51 22.3 12.3 53 1030.6 1.6 S 6.0 0.0 0.0
12:52 22.3 12.6 54 1030.5 5.4 S 6.0 0.0 0.0
12:53 22.3 12.3 53 1030.6 5.4 S 6.0 0.0 0.0
12:54 22.2 11.9 52 1030.4 6.0 SE 6.0 0.0 0.0
12:55 22.2 11.9 52 1030.5 4.5 NE 6.0 0.0 0.0
12:56 22.1 12.1 53 1030.7 7.6 S 7.6 0.0 0.0
12:57 22.1 12.1 53 1030.6 7.6 S 7.6 0.0 0.0
12:58 22.1 12.1 53 1030.4 7.6 S 7.6 0.0 0.0
12:59 22.0 12.0 53 1030.7 3.8 SW 7.6 0.0 0.0
13:00 22.1 12.4 54 1030.7 3.8 NE 7.6 0.0 0.0
13:01 22.1 12.4 54 1030.5 3.8 NE 7.6 0.0 0.0
13:02 22.1 12.4 54 1030.5 3.8 NE 7.6 0.0 0.0
13:03 22.1 12.4 54 1030.5 3.8 NE 7.6 0.0 0.0
13:04 22.1 12.4 54 1030.6 3.8 NE 7.6 0.0 0.0
13:05 22.1 12.4 54 1030.6 3.8 NE 7.6 0.0 0.0
13:06 22.0 11.7 52 1030.5 4.5 NW 7.6 0.0 0.0
13:07 22.0 11.7 52 1030.6 8.3 NE 8.3 0.0 0.0
13:08 22.0 11.7 52 1030.6 8.3 SW 8.3 0.0 0.0
13:09 22.1 12.1 53 1030.4 3.8 NE 8.3 0.0 0.0
13:10 22.1 11.8 52 1030.5 5.4 NE 8.3 0.0 0.0
13:11 22.2 12.2 53 1030.5 3.8 S 8.3 0.0 0.0
13:12 22.2 11.9 52 1030.4 3.8 E 8.3 0.0 0.0
13:13 22.2 12.2 53 1030.6 3.1 S 8.3 0.0 0.0
13:15 22.3 12.3 53 1030.5 3.1 NE 8.3 0.0 0.0
13:16 22.3 12.0 52 1030.5 4.5 S 8.3 0.0 0.0
13:17 22.3 11.7 51 1030.6 4.5 S 8.3 0.0 0.0
13:18 22.2 11.9 52 1030.5 3.8 NE 8.3 0.0 0.0
13:19 22.2 12.2 53 1030.6 5.4 NE 5.4 0.0 0.0
13:20 22.3 12.3 53 1030.5 3.1 NW 5.4 0.0 0.0
13:21 22.3 12.3 53 1030.3 3.1 NW 5.4 0.0 0.0
13:22 22.5 11.6 50 1030.6 3.8 NE 5.4 0.0 0.0
13:23 22.5 11.6 50 1030.4 2.2 N 5.4 0.0 0.0
13:24 22.6 11.7 50 1030.3 4.5 SW 5.4 0.0 0.0
13:25 22.6 11.7 50 1030.5 4.5 SW 5.4 0.0 0.0
13:26 22.7 11.8 50 1030.4 6.0 E 6.0 0.0 0.0
13:27 22.8 11.8 50 1030.5 6.0 S 6.0 0.0 0.0
13:28 22.9 11.9 50 1030.4 4.5 NE 6.0 0.0 0.0
13:29 22.9 11.9 50 1030.4 4.5 NE 6.0 0.0 0.0
13:30 23.1 12.1 50 1030.5 6.9 N 6.9 0.0 0.0
13:31 23.1 11.8 49 1030.5 3.8 S 6.9 0.0 0.0
13:32 23.1 11.8 49 1030.5 6.0 S 6.9 0.0 0.0
13:33 23.1 11.8 49 1030.5 6.0 S 6.9 0.0 0.0
13:34 22.9 11.3 48 1030.6 4.5 S 6.9 0.0 0.0
13:35 22.8 10.9 47 1030.6 3.1 W 6.9 0.0 0.0
13:36 22.8 10.9 47 1030.7 3.1 W 6.9 0.0 0.0
13:37 22.8 11.5 49 1030.6 3.1 S 6.9 0.0 0.0
13:38 22.7 11.1 48 1030.5 4.5 SE 6.9 0.0 0.0
13:39 22.7 11.1 48 1030.3 6.0 SW 6.9 0.0 0.0
13:40 22.8 11.5 49 1030.5 9.2 SE 9.2 0.0 0.0
13:41 22.8 11.2 48 1030.4 7.6 S 9.2 0.0 0.0
13:42 22.7 10.8 47 1030.6 6.0 S 9.2 0.0 0.0
13:43 22.7 10.8 47 1030.5 6.0 S 9.2 0.0 0.0
13:44 22.5 10.6 47 1030.6 3.1 NW 9.2 0.0 0.0
13:45 22.5 11.3 49 1030.6 5.4 NE 9.2 0.0 0.0
13:46 22.6 11.7 50 1030.5 3.1 NE 9.2 0.0 0.0
13:47 22.6 11.7 50 1030.3 1.6 N 9.2 0.0 0.0
13:48 22.6 11.7 50 1030.4 1.6 N 9.2 0.0 0.0
13:49 22.6 11.7 50 1030.6 1.6 N 9.2 0.0 0.0
13:50 22.7 12.1 51 1030.4 3.1 SW 9.2 0.0 0.0
13:51 22.7 12.1 51 1030.5 3.1 SW 7.6 0.0 0.0
13:52 22.7 12.1 51 1030.4 3.1 SW 6.0 0.0 0.0
13:53 22.9 12.2 51 1030.2 6.0 NW 6.0 0.0 0.0
13:54 23.1 12.1 50 1030.5 4.5 NW 6.0 0.0 0.0
13:55 23.1 12.1 50 1030.4 4.5 NW 6.0 0.0 0.0
13:56 23.1 12.1 50 1030.4 4.5 NW 6.0 0.0 0.0
13:57 23.1 11.8 49 1030.3 9.2 SW 9.2 0.0 0.0
13:58 22.9 11.6 49 1030.3 7.6 SW 9.2 0.0 0.0
13:59 22.8 11.8 50 1030.5 6.0 NW 9.2 0.0 0.0
14:00 22.8 11.8 50 1030.4 5.4 NE 9.2 0.0 0.0
14:01 22.8 11.8 50 1030.3 5.4 NE 9.2 0.0 0.0
14:02 22.8 11.8 50 1030.3 5.4 NE 9.2 0.0 0.0
14:03 22.9 11.9 50 1030.2 8.3 NW 9.2 0.0 0.0
14:04 22.9 11.9 50 1030.3 8.3 NW 9.2 0.0 0.0
14:05 23.2 12.2 50 1030.3 6.0 NW 9.2 0.0 0.0
14:06 23.2 12.2 50 1030.4 5.4 NW 9.2 0.0 0.0
14:07 23.2 12.2 50 1030.3 5.4 NW 9.2 0.0 0.0
14:08 23.3 12.3 50 1030.4 4.5 N 8.3 0.0 0.0
14:09 23.3 12.3 50 1030.3 4.5 N 8.3 0.0 0.0
14:10 23.3 12.3 50 1030.4 4.5 N 8.3 0.0 0.0
14:11 23.6 12.3 49 1030.1 9.2 S 9.2 0.0 0.0
14:12 23.6 12.3 49 1030.1 9.2 S 9.2 0.0 0.0
14:13 23.6 12.3 49 1030.4 9.2 S 9.2 0.0 0.0
14:14 23.6 12.3 49 1030.4 9.2 S 9.2 0.0 0.0
14:15 23.4 12.1 49 1030.3 7.6 N 9.2 0.0 0.0
14:16 23.4 12.1 49 1030.1 7.6 N 9.2 0.0 0.0
14:17 23.4 12.1 49 1030.2 11.4 NW 11.4 0.0 0.0
14:18 23.3 12.0 49 1030.4 7.6 NW 11.4 0.0 0.0
14:19 23.3 12.0 49 1030.4 7.6 NE 11.4 0.0 0.0
14:20 23.3 12.0 49 1030.2 7.6 NE 11.4 0.0 0.0
14:21 23.3 12.0 49 1030.5 5.4 NW 11.4 0.0 0.0
14:22 23.3 12.0 49 1030.1 6.0 W 11.4 0.0 0.0
14:23 23.3 11.7 48 1030.4 6.9 NW 11.4 0.0 0.0
14:24 23.3 11.4 47 1030.3 9.8 WNW 11.4 0.0 0.0
14:25 23.2 11.6 48 1029.8 6.9 WNW 11.4 0.0 0.0
14:26 23.2 11.6 48 1030.4 6.9 WNW 11.4 0.0 0.0
14:27 23.1 11.2 47 1030.2 6.0 NW 11.4 0.0 0.0
14:28 23.1 11.2 47 1030.3 6.0 NW 9.8 0.0 0.0
14:29 23.1 11.2 47 1030.4 6.0 NW 9.8 0.0 0.0
14:30 23.1 11.2 47 1030.4 6.0 NW 9.8 0.0 0.0
14:31 23.1 11.2 47 1030.2 6.0 NW 9.8 0.0 0.0
14:32 23.1 11.8 49 1030.2 7.6 NW 9.8 0.0 0.0
14:33 23.1 11.8 49 1030.3 7.6 NW 9.8 0.0 0.0
14:34 23.1 11.8 49 1030.2 11.4 W 11.4 0.0 0.0
14:35 23.1 11.8 49 1030.1 6.9 NW 11.4 0.0 0.0
14:36 23.1 11.8 49 1030.3 6.9 NW 11.4 0.0 0.0
14:37 23.3 12.0 49 1030.1 7.6 N 11.4 0.0 0.0
14:38 23.3 12.0 49 1030.1 10.7 NW 11.4 0.0 0.0
14:39 23.3 12.0 49 1030.0 10.7 NW 11.4 0.0 0.0
14:40 23.3 12.0 49 1030.2 10.7 NW 11.4 0.0 0.0
14:41 23.3 12.0 49 1030.2 9.8 N 11.4 0.0 0.0
14:42 23.3 12.0 49 1030.2 9.8 N 11.4 0.0 0.0
14:43 23.4 12.1 49 1030.2 11.4 NE 11.4 0.0 0.0
14:44 23.4 12.1 49 1030.1 11.4 NE 11.4 0.0 0.0
14:45 23.4 12.1 49 1030.3 9.8 SW 11.4 0.0 0.0
14:46 23.4 12.1 49 1030.1 9.8 NW 11.4 0.0 0.0
14:47 23.4 12.1 49 1030.4 9.8 NW 11.4 0.0 0.0
14:48 23.4 12.1 49 1030.3 9.8 NW 11.4 0.0 0.0
14:49 23.4 12.1 49 1030.3 9.8 NW 11.4 0.0 0.0
14:50 23.4 12.1 49 1029.9 10.7 NW 11.4 0.0 0.0
14:51 23.4 12.1 49 1030.2 10.7 NW 11.4 0.0 0.0
14:52 23.4 12.1 49 1030.3 10.7 NW 11.4 0.0 0.0
14:53 23.4 12.1 49 1030.3 9.2 NE 11.4 0.0 0.0
14:54 23.5 12.2 49 1030.1 10.7 N 10.7 0.0 0.0
14:55 23.5 12.2 49 1030.1 10.7 N 10.7 0.0 0.0
14:56 23.5 12.2 49 1030.1 10.7 N 10.7 0.0 0.0
14:57 23.5 12.2 49 1030.3 10.7 N 10.7 0.0 0.0
14:58 23.5 12.2 49 1030.3 10.7 N 10.7 0.0 0.0
14:59 23.2 11.9 49 1030.1 8.3 N 10.7 0.0 0.0
15:00 23.2 11.9 49 1030.3 8.3 N 10.7 0.0 0.0
15:01 23.2 11.9 49 1030.2 8.3 N 10.7 0.0 0.0
15:02 23.2 11.9 49 1030.1 8.3 N 10.7 0.0 0.0
15:03 23.2 11.9 49 1030.2 8.3 N 10.7 0.0 0.0
15:04 23.2 11.9 49 1030.1 8.3 N 10.7 0.0 0.0
15:05 23.2 11.9 49 1030.3 8.3 N 10.7 0.0 0.0
15:06 23.2 11.9 49 1030.1 8.3 N 10.7 0.0 0.0
15:07 23.2 11.9 49 1030.2 8.3 N 10.7 0.0 0.0
15:08 23.2 11.9 49 1029.9 8.3 N 10.7 0.0 0.0
15:09 23.8 12.5 49 1030.3 9.2 NW 9.2 0.0 0.0
15:10 23.8 12.5 49 1030.2 9.2 NW 9.2 0.0 0.0
15:11 23.8 12.5 49 1030.2 9.2 NW 9.2 0.0 0.0
15:12 23.8 12.5 49 1030.1 9.2 NW 9.2 0.0 0.0
15:13 24.0 12.6 49 1030.2 12.1 N 12.1 0.0 0.0
15:14 24.0 12.6 49 1029.9 12.1 N 12.1 0.0 0.0
15:16 23.9 12.6 49 1030.1 6.9 W 12.1 0.0 0.0
15:17 23.9 12.6 49 1030.3 6.9 W 12.1 0.0 0.0
15:18 23.8 12.1 48 1030.3 9.2 E 12.1 0.0 0.0
15:19 23.8 12.1 48 1030.1 9.2 E 12.1 0.0 0.0
15:20 23.8 12.1 48 1030.1 9.2 E 12.1 0.0 0.0
15:21 23.6 12.0 48 1030.1 9.8 N 12.1 0.0 0.0
15:22 23.6 12.0 48 1030.1 9.8 N 12.1 0.0 0.0
15:23 23.5 11.6 47 1029.9 12.1 NE 12.1 0.0 0.0
15:24 23.5 11.6 47 1030.0 12.1 NE 12.1 0.0 0.0
15:25 23.5 11.6 47 1030.2 12.1 NE 12.1 0.0 0.0
15:26 23.2 11.9 49 1030.0 4.5 NW 12.1 0.0 0.0
15:27 23.2 11.9 49 1030.1 4.5 NW 12.1 0.0 0.0
15:28 23.2 11.9 49 1030.2 4.5 NW 12.1 0.0 0.0
15:29 23.4 12.1 49 1030.1 7.6 NE 12.1 0.0 0.0
15:30 23.4 12.1 49 1030.1 7.6 NE 12.1 0.0 0.0
15:31 23.5 12.2 49 1030.0 8.3 S 12.1 0.0 0.0
15:32 23.5 12.2 49 1030.0 8.3 S 12.1 0.0 0.0
15:33 23.5 12.2 49 1030.0 8.3 S 12.1 0.0 0.0
15:34 23.5 11.2 46 1030.1 10.7 NW 12.1 0.0 0.0
15:35 23.5 11.2 46 1030.0 10.7 NW 12.1 0.0 0.0
15:36 23.4 11.5 47 1030.1 9.8 NE 10.7 0.0 0.0
15:37 23.4 11.5 47 1030.1 9.8 NE 10.7 0.0 0.0
15:38 23.4 11.5 47 1030.0 9.8 NE 10.7 0.0 0.0
15:39 23.4 12.1 49 1030.1 7.6 NW 10.7 0.0 0.0
15:40 23.4 11.8 48 1030.1 6.9 NW 10.7 0.0 0.0
15:41 23.4 11.8 48 1030.0 6.9 NW 10.7 0.0 0.0
15:42 23.4 11.5 47 1030.3 7.6 N 10.7 0.0 0.0
15:43 23.4 11.5 47 1030.1 7.6 N 10.7 0.0 0.0
15:44 23.4 11.5 47 1029.9 7.6 N 10.7 0.0 0.0
15:45 23.5 12.2 49 1030.1 5.4 N 9.8 0.0 0.0
15:46 23.5 12.2 49 1030.0 5.4 N 9.8 0.0 0.0
15:47 23.6 12.3 49 1030.2 7.6 N 9.8 0.0 0.0
15:48 23.6 12.3 49 1030.0 7.6 N 9.8 0.0 0.0
15:49 23.6 12.3 49 1030.0 9.2 W 9.2 0.0 0.0
15:50 23.6 12.3 49 1030.1 9.2 N 9.2 0.0 0.0
15:51 23.6 12.3 49 1030.1 9.2 N 9.2 0.0 0.0
15:52 23.6 12.3 49 1030.1 9.2 N 9.2 0.0 0.0
15:53 23.6 12.3 49 1030.1 9.2 N 9.2 0.0 0.0
15:54 23.4 12.1 49 1030.2 7.6 N 9.2 0.0 0.0
15:55 23.3 11.7 48 1030.0 9.8 N 9.8 0.0 0.0
15:56 23.2 11.6 48 1029.8 7.6 N 9.8 0.0 0.0
15:57 23.2 11.6 48 1030.0 7.6 N 9.8 0.0 0.0
15:58 23.2 11.6 48 1029.8 7.6 N 9.8 0.0 0.0
15:59 23.2 11.6 48 1030.0 7.6 N 9.8 0.0 0.0
16:00 23.2 11.6 48 1030.1 7.6 N 9.8 0.0 0.0
16:01 23.2 11.6 48 1030.0 7.6 N 9.8 0.0 0.0
16:02 23.2 11.6 48 1030.0 7.6 N 9.8 0.0 0.0
16:03 23.2 11.6 48 1030.0 7.6 N 9.8 0.0 0.0
16:04 23.2 11.6 48 1029.9 7.6 N 9.8 0.0 0.0
16:05 23.2 11.6 48 1029.9 7.6 N 9.8 0.0 0.0
16:06 23.1 11.8 49 1030.1 8.3 NE 13.6 0.0 0.0
16:07 23.1 11.8 49 1030.0 8.3 NE 13.6 0.0 0.0
16:08 23.1 11.8 49 1029.8 8.3 NE 13.6 0.0 0.0
16:09 23.1 11.8 49 1029.8 8.3 NE 13.6 0.0 0.0
16:10 23.1 11.8 49 1029.9 8.3 NE 13.6 0.0 0.0
16:11 23.1 11.8 49 1030.0 8.3 NE 13.6 0.0 0.0
16:12 23.1 11.8 49 1029.8 8.3 NE 13.6 0.0 0.0
16:13 23.1 11.8 49 1029.9 8.3 NE 13.6 0.0 0.0
16:14 23.1 11.8 49 1029.9 8.3 NE 13.6 0.0 0.0
16:15 23.1 11.8 49 1029.9 8.3 NE 13.6 0.0 0.0
16:16 23.2 11.9 49 1030.0 10.7 N 10.7 0.0 0.0
16:17 23.2 11.9 49 1029.8 10.7 N 10.7 0.0 0.0
16:18 23.2 11.9 49 1029.8 10.7 N 10.7 0.0 0.0
16:19 23.1 11.2 47 1029.9 9.8 NW 10.7 0.0 0.0
16:20 23.0 11.4 48 1029.7 9.8 N 10.7 0.0 0.0
16:21 23.0 11.4 48 1029.6 9.8 N 10.7 0.0 0.0
16:22 22.9 11.6 49 1029.5 12.1 NW 12.1 0.0 0.0
16:23 22.9 11.6 49 1029.5 12.1 NW 12.1 0.0 0.0
16:24 23.0 11.7 49 1029.8 7.6 SW 12.1 0.0 0.0
16:25 23.0 11.7 49 1029.7 7.6 SW 12.1 0.0 0.0
16:26 23.0 11.7 49 1029.6 7.6 SW 12.1 0.0 0.0
16:27 23.0 11.7 49 1029.6 7.6 SW 12.1 0.0 0.0
16:28 23.0 11.7 49 1029.7 7.6 SW 12.1 0.0 0.0
16:29 23.0 11.7 49 1029.8 7.6 SW 12.1 0.0 0.0
16:30 23.2 11.9 49 1029.7 8.3 NE 12.1 0.0 0.0
16:31 23.2 11.9 49 1029.6 8.3 NE 12.1 0.0 0.0
16:32 23.2 11.9 49 1029.7 8.3 NE 12.1 0.0 0.0
16:33 23.2 11.9 49 1029.6 8.3 NE 12.1 0.0 0.0
16:34 23.1 11.8 49 1029.6 8.3 NW 8.3 0.0 0.0
16:35 23.1 11.8 49 1029.8 8.3 NW 8.3 0.0 0.0
16:36 23.1 11.8 49 1029.6 8.3 NW 8.3 0.0 0.0
16:37 23.1 11.8 49 1029.7 8.3 NW 8.3 0.0 0.0
16:38 23.1 11.8 49 1029.6 8.3 NW 8.3 0.0 0.0
16:39 23.1 11.8 49 1029.6 8.3 NW 8.3 0.0 0.0
16:40 23.1 12.1 50 1029.4 6.0 NW 8.3 0.0 0.0
16:41 23.1 12.1 50 1029.6 6.0 NW 8.3 0.0 0.0
16:42 23.1 12.1 50 1029.6 6.0 NW 8.3 0.0 0.0
16:43 23.1 12.1 50 1029.5 6.0 NW 8.3 0.0 0.0
16:44 23.1 12.1 50 1029.7 6.0 NW 8.3 0.0 0.0
16:45 23.2 12.5 51 1029.8 8.3 NE 8.3 0.0 0.0
16:46 23.2 11.9 49 1029.5 9.2 N 9.2 0.0 0.0
16:47 23.2 11.9 49 1029.4 9.2 N 9.2 0.0 0.0
16:48 23.2 11.9 49 1029.5 11.4 NW 11.4 0.0 0.0
16:49 23.1 11.8 49 1029.5 9.2 N 11.4 0.0 0.0
16:50 23.0 12.0 50 1029.5 10.7 N 11.4 0.0 0.0
16:51 22.9 11.9 50 1029.4 9.8 NE 11.4 0.0 0.0
16:52 22.9 11.9 50 1029.5 10.7 W 11.4 0.0 0.0
16:53 22.9 11.9 50 1029.4 10.7 W 11.4 0.0 0.0
16:54 22.8 11.8 50 1029.4 8.3 N 11.4 0.0 0.0
16:55 22.8 11.8 50 1029.5 8.3 N 11.4 0.0 0.0
16:56 22.8 12.2 51 1029.5 4.5 N 11.4 0.0 0.0
16:57 22.8 12.2 51 1029.6 5.4 W 11.4 0.0 0.0
16:58 22.9 12.2 51 1029.6 8.3 W 10.7 0.0 0.0
16:59 23.0 12.3 51 1029.4 5.4 N 10.7 0.0 0.0
17:00 23.0 12.0 50 1029.4 6.0 N 10.7 0.0 0.0
17:01 23.0 12.0 50 1029.5 6.0 N 10.7 0.0 0.0
17:02 23.0 12.0 50 1029.2 6.0 N 10.7 0.0 0.0
17:03 23.1 12.1 50 1029.5 8.3 NW 10.7 0.0 0.0
17:04 23.1 12.1 50 1029.5 10.7 NE 10.7 0.0 0.0
17:05 23.1 12.1 50 1029.5 10.7 NW 10.7 0.0 0.0
17:06 23.0 12.0 50 1029.4 9.8 N 10.7 0.0 0.0
17:07 23.0 12.3 51 1029.4 9.8 NW 10.7 0.0 0.0
17:08 23.0 12.3 51 1029.5 9.8 N 10.7 0.0 0.0
17:09 23.0 12.0 50 1029.4 9.8 NW 10.7 0.0 0.0
17:10 22.9 11.9 50 1029.3 10.7 NW 10.7 0.0 0.0
17:11 22.8 11.8 50 1029.5 9.8 N 10.7 0.0 0.0
17:12 22.8 11.8 50 1029.2 5.4 N 10.7 0.0 0.0
17:13 22.8 11.8 50 1029.3 10.7 N 10.7 0.0 0.0
17:14 22.7 11.8 50 1029.4 6.9 E 10.7 0.0 0.0
17:15 22.7 11.8 50 1029.3 10.7 N 10.7 0.0 0.0
17:17 22.7 11.5 49 1029.3 7.6 NW 10.7 0.0 0.0
17:18 22.6 11.7 50 1029.4 6.9 NNE 10.7 0.0 0.0
17:19 22.6 11.7 50 1029.3 6.9 N 10.7 0.0 0.0
17:20 22.7 11.8 50 1029.4 9.2 NW 10.7 0.0 0.0
17:21 22.7 11.8 50 1029.3 6.9 N 10.7 0.0 0.0
17:22 22.8 11.8 50 1029.3 9.2 NE 10.7 0.0 0.0
17:23 22.9 11.9 50 1029.3 4.5 SW 10.7 0.0 0.0
17:24 22.9 11.9 50 1029.5 4.5 SW 10.7 0.0 0.0
17:25 22.9 12.2 51 1029.3 9.8 NE 10.7 0.0 0.0
17:26 23.0 12.3 51 1029.5 8.3 NW 9.8 0.0 0.0
17:27 23.0 12.3 51 1029.1 8.3 NW 9.8 0.0 0.0
17:28 23.0 12.3 51 1029.4 9.8 W 9.8 0.0 0.0
17:29 23.0 12.3 51 1029.1 9.8 N 9.8 0.0 0.0
17:30 23.0 12.3 51 1029.3 8.3 NW 9.8 0.0 0.0
17:31 23.0 12.0 50 1029.6 7.6 NNE 9.8 0.0 0.0
17:32 23.0 12.0 50 1029.5 5.4 SW 9.8 0.0 0.0
17:33 22.9 11.9 50 1029.3 6.0 NW 9.8 0.0 0.0
17:34 22.9 11.9 50 1029.3 9.2 NW 9.8 0.0 0.0
17:35 22.8 11.8 50 1029.3 9.2 N 9.8 0.0 0.0
17:36 22.7 11.8 50 1029.4 8.3 NW 9.8 0.0 0.0
17:37 22.7 11.8 50 1029.2 8.3 NW 9.8 0.0 0.0
17:38 22.7 12.1 51 1029.3 8.3 N 9.8 0.0 0.0
17:39 22.8 12.2 51 1029.4 4.5 NE 9.8 0.0 0.0
17:40 22.8 12.2 51 1029.3 4.5 NE 9.2 0.0 0.0
17:41 22.9 12.2 51 1029.1 6.9 NW 9.2 0.0 0.0
17:42 22.9 12.2 51 1029.2 6.9 N 9.2 0.0 0.0
17:43 22.9 12.2 51 1029.0 6.9 N 9.2 0.0 0.0
17:44 22.9 12.2 51 1029.1 7.6 NE 9.2 0.0 0.0
17:45 22.8 11.8 50 1029.2 9.8 N 9.8 0.0 0.0
17:46 22.8 11.8 50 1029.1 9.8 N 9.8 0.0 0.0
17:47 22.7 12.1 51 1029.3 6.9 NW 9.8 0.0 0.0
17:48 22.7 12.1 51 1029.2 6.0 N 9.8 0.0 0.0
17:49 22.7 12.1 51 1029.2 6.0 N 9.8 0.0 0.0
17:50 22.8 12.2 51 1029.2 7.6 N 9.8 0.0 0.0
17:51 22.8 12.2 51 1029.2 5.4 NE 9.8 0.0 0.0
17:52 22.7 12.1 51 1029.2 6.0 N 9.8 0.0 0.0
17:53 22.7 12.1 51 1029.3 6.0 N 9.8 0.0 0.0
17:54 22.7 12.1 51 1029.1 6.0 N 9.8 0.0 0.0
17:55 22.8 12.2 51 1028.9 9.2 NW 9.8 0.0 0.0
17:56 22.8 11.8 50 1029.2 9.2 N 9.8 0.0 0.0
17:57 22.8 11.8 50 1029.1 6.0 E 9.2 0.0 0.0
17:58 22.7 11.8 50 1029.1 6.9 E 9.2 0.0 0.0
17:59 22.7 11.8 50 1029.3 6.9 E 9.2 0.0 0.0
18:00 22.7 11.8 50 1029.1 8.3 W 9.2 0.0 0.0
18:01 22.7 11.8 50 1029.0 8.3 W 9.2 0.0 0.0
18:02 22.7 11.8 50 1029.2 8.3 W 9.2 0.0 0.0
18:03 22.6 11.7 50 1028.9 6.0 SE 9.2 0.0 0.0
18:04 22.5 11.6 50 1029.1 5.4 NE 9.2 0.0 0.0
18:05 22.5 11.6 50 1029.1 4.5 NE 9.2 0.0 0.0
18:06 22.5 11.6 50 1029.1 3.8 E 9.2 0.0 0.0
18:07 22.5 11.9 51 1029.1 4.5 NE 9.2 0.0 0.0
18:08 22.6 12.0 51 1029.1 8.3 E 9.2 0.0 0.0
18:09 22.6 11.7 50 1029.1 8.3 N 9.2 0.0 0.0
18:10 22.5 11.6 50 1029.1 6.0 N 9.2 0.0 0.0
18:11 22.5 11.6 50 1029.1 6.0 N 9.2 0.0 0.0
18:12 22.5 11.6 50 1028.8 6.9 NW 9.2 0.0 0.0
18:13 22.5 11.6 50 1028.8 6.9 NW 9.2 0.0 0.0
18:14 22.4 12.4 53 1029.1 7.6 NW 9.2 0.0 0.0
18:15 22.4 12.4 53 1029.1 7.6 NW 8.3 0.0 0.0
18:16 22.3 12.3 53 1029.2 7.6 NE 8.3 0.0 0.0
18:17 22.3 12.3 53 1029.1 6.0 N 8.3 0.0 0.0
18:18 22.3 12.6 54 1029.1 4.5 NE 8.3 0.0 0.0
18:19 22.3 12.6 54 1029.0 4.5 NW 8.3 0.0 0.0
18:20 22.3 12.6 54 1029.0 5.4 N 7.6 0.0 0.0
18:21 22.3 12.6 54 1029.2 8.3 NW 8.3 0.0 0.0
18:22 22.2 12.2 53 1028.8 9.8 N 9.8 0.0 0.0
18:23 22.2 12.2 53 1028.9 9.8 N 9.8 0.0 0.0
18:24 22.0 12.0 53 1029.0 8.3 NW 9.8 0.0 0.0
18:25 21.9 11.9 53 1028.9 6.0 N 9.8 0.0 0.0
18:26 21.9 12.2 54 1029.2 3.1 NW 9.8 0.0 0.0
18:27 21.9 12.2 54 1028.9 3.1 NW 9.8 0.0 0.0
18:28 21.9 12.5 55 1029.0 8.3 N 9.8 0.0 0.0
18:29 21.9 12.5 55 1029.1 4.5 E 9.8 0.0 0.0
18:30 21.9 12.2 54 1029.1 3.1 SW 9.8 0.0 0.0
18:31 21.9 12.2 54 1029.1 3.1 SW 9.8 0.0 0.0
18:32 21.9 12.2 54 1029.1 8.3 NE 9.8 0.0 0.0
18:33 21.9 12.2 54 1029.2 8.3 NE 9.8 0.0 0.0
18:34 21.8 12.1 54 1029.0 6.0 N 8.3 0.0 0.0
18:35 21.8 12.1 54 1029.1 6.9 N 8.3 0.0 0.0
18:36 21.8 12.1 54 1029.1 6.9 N 8.3 0.0 0.0
18:37 21.8 12.1 54 1028.9 6.9 N 8.3 0.0 0.0
18:38 21.8 12.1 54 1029.1 4.5 SE 8.3 0.0 0.0
18:39 21.8 12.4 55 1029.1 1.6 NE 8.3 0.0 0.0
18:40 21.8 12.6 56 1029.1 6.0 N 8.3 0.0 0.0
18:41 21.8 12.6 56 1029.0 6.0 N 8.3 0.0 0.0
18:42 21.9 12.2 54 1028.9 6.0 N 8.3 0.0 0.0
18:43 21.9 12.2 54 1029.2 6.0 N 6.9 0.0 0.0
18:44 21.8 12.1 54 1029.2 7.6 N 7.6 0.0 0.0
18:45 21.8 12.1 54 1029.0 4.5 NE 7.6 0.0 0.0
18:46 21.7 12.0 54 1029.0 5.4 N 7.6 0.0 0.0
18:47 21.7 12.3 55 1029.3 4.5 E 7.6 0.0 0.0
18:48 21.7 12.6 56 1029.1 6.9 NE 7.6 0.0 0.0
18:49 21.7 12.6 56 1029.1 8.3 W 8.3 0.0 0.0
18:50 21.7 12.3 55 1029.0 8.3 NW 8.3 0.0 0.0
18:51 21.7 12.3 55 1029.1 4.5 WNW 8.3 0.0 0.0
18:52 21.7 12.6 56 1029.0 4.5 W 8.3 0.0 0.0
18:53 21.7 12.6 56 1029.1 7.6 NW 8.3 0.0 0.0
18:54 21.7 12.3 55 1029.1 7.6 N 8.3 0.0 0.0
18:55 21.6 12.5 56 1029.1 6.9 E 8.3 0.0 0.0
18:56 21.6 12.5 56 1029.2 6.9 E 8.3 0.0 0.0
18:57 21.6 12.5 56 1029.1 6.9 E 8.3 0.0 0.0
18:58 21.4 12.3 56 1029.1 7.6 N 8.3 0.0 0.0
18:59 21.4 12.3 56 1029.2 6.0 N 8.3 0.0 0.0
19:00 21.3 12.2 56 1029.1 5.4 NE 8.3 0.0 0.0
19:01 21.3 12.2 56 1029.0 5.4 NE 7.6 0.0 0.0
19:02 21.3 12.2 56 1028.9 5.4 NE 7.6 0.0 0.0
19:03 21.3 12.2 56 1029.1 5.4 NE 7.6 0.0 0.0
19:04 21.2 12.1 56 1029.1 9.2 NE 9.2 0.0 0.0
19:05 21.1 12.0 56 1029.2 9.2 NE 9.2 0.0 0.0
19:06 21.1 12.0 56 1028.9 6.0 N 9.2 0.0 0.0
19:07 21.0 11.9 56 1029.1 6.9 NW 9.2 0.0 0.0
19:08 20.9 11.8 56 1029.1 6.9 NW 9.2 0.0 0.0
19:09 20.9 11.8 56 1029.1 7.6 N 9.2 0.0 0.0
19:10 20.8 11.7 56 1029.1 6.0 NE 9.2 0.0 0.0
19:11 20.8 11.7 56 1029.2 4.5 NW 9.2 0.0 0.0
19:12 20.7 11.9 57 1029.3 4.5 SW 9.2 0.0 0.0
19:13 20.7 11.9 57 1029.2 7.6 N 9.2 0.0 0.0
19:14 20.7 12.2 58 1029.3 5.4 N 9.2 0.0 0.0
19:15 20.7 12.2 58 1029.3 7.6 N 9.2 0.0 0.0
19:16 20.7 12.2 58 1029.2 7.6 N 7.6 0.0 0.0
19:17 20.7 11.9 57 1029.1 6.0 NE 7.6 0.0 0.0
19:18 20.6 11.8 57 1029.1 4.5 NW 7.6 0.0 0.0
19:19 20.6 11.8 57 1029.2 4.5 NW 7.6 0.0 0.0
19:20 20.5 11.7 57 1029.1 6.0 N 7.6 0.0 0.0
19:21 20.5 11.7 57 1029.3 5.4 W 7.6 0.0 0.0
19:22 20.5 11.7 57 1029.1 5.4 NW 7.6 0.0 0.0
19:23 20.4 11.9 58 1029.1 4.5 N 7.6 0.0 0.0
19:24 20.4 11.9 58 1029.2 4.5 N 7.6 0.0 0.0
19:25 20.4 11.9 58 1029.2 5.4 SW 7.6 0.0 0.0
19:26 20.4 11.9 58 1029.2 5.4 NE 7.6 0.0 0.0
19:27 20.4 12.1 59 1029.2 3.8 WNW 6.0 0.0 0.0
19:28 20.4 12.1 59 1029.4 6.0 NW 6.0 0.0 0.0
19:29 20.4 12.1 59 1029.3 3.8 NNE 6.0 0.0 0.0
19:30 20.4 12.1 59 1029.5 7.6 N 7.6 0.0 0.0
19:31 20.4 12.1 59 1029.3 5.4 NE 7.6 0.0 0.0
19:32 20.3 11.8 58 1029.2 4.5 NNE 7.6 0.0 0.0
19:33 20.3 11.8 58 1029.1 4.5 NW 7.6 0.0 0.0
19:34 20.3 12.0 59 1029.3 4.5 N 7.6 0.0 0.0
19:35 20.3 12.0 59 1029.4 4.5 N 7.6 0.0 0.0
19:36 20.3 12.0 59 1029.3 3.8 NW 7.6 0.0 0.0
19:37 20.3 12.0 59 1029.4 6.0 E 7.6 0.0 0.0
19:38 20.3 12.0 59 1029.3 6.9 NW 7.6 0.0 0.0
19:39 20.3 12.0 59 1029.5 6.9 NW 7.6 0.0 0.0
19:40 20.3 12.0 59 1029.5 6.9 W 7.6 0.0 0.0
19:41 20.2 11.9 59 1029.2 4.5 N 6.9 0.0 0.0
19:42 20.2 11.9 59 1029.3 5.4 N 6.9 0.0 0.0
19:43 20.1 12.1 60 1029.5 4.5 N 6.9 0.0 0.0
19:44 20.1 12.1 60 1029.1 4.5 N 6.9 0.0 0.0
19:45 20.1 12.1 60 1029.5 3.8 N 6.9 0.0 0.0
19:46 20.1 12.1 60 1029.3 5.4 NW 6.9 0.0 0.0
19:47 20.0 12.0 60 1029.2 9.2 SW 9.2 0.0 0.0
19:48 19.9 11.9 60 1029.3 7.6 NW 9.2 0.0 0.0
19:49 19.9 11.9 60 1029.3 7.6 NE 9.2 0.0 0.0
19:50 19.8 11.8 60 1029.3 6.9 N 9.2 0.0 0.0
19:51 19.8 11.8 60 1029.4 5.4 NW 9.2 0.0 0.0
19:52 19.6 11.6 60 1029.5 6.0 NE 9.2 0.0 0.0
19:53 19.6 11.6 60 1029.3 5.4 SW 9.2 0.0 0.0
19:54 19.6 11.6 60 1029.4 6.0 N 9.2 0.0 0.0
19:55 19.5 11.5 60 1029.4 6.0 N 9.2 0.0 0.0
19:56 19.5 11.5 60 1029.5 7.6 NW 9.2 0.0 0.0
19:57 19.5 11.5 60 1029.3 5.4 NE 9.2 0.0 0.0
19:58 19.4 11.7 61 1029.4 4.5 W 7.6 0.0 0.0
19:59 19.4 11.7 61 1029.3 5.4 N 7.6 0.0 0.0
20:00 19.4 11.7 61 1029.4 5.4 SW 7.6 0.0 0.0
20:01 19.4 11.7 61 1029.7 5.4 SW 7.6 0.0 0.0
20:02 19.4 11.7 61 1029.4 5.4 SW 7.6 0.0 0.0
20:03 19.3 11.6 61 1029.5 7.6 N 7.6 0.0 0.0
20:04 19.2 11.5 61 1029.6 6.9 N 7.6 0.0 0.0
20:05 19.2 11.8 62 1029.4 6.9 N 7.6 0.0 0.0
20:06 19.1 11.7 62 1029.2 5.4 E 7.6 0.0 0.0
20:07 19.1 11.7 62 1029.4 6.0 NW 7.6 0.0 0.0
20:08 19.0 11.6 62 1029.4 5.4 NW 7.6 0.0 0.0
20:09 19.0 11.6 62 1029.5 4.5 SW 7.6 0.0 0.0
20:10 19.0 11.6 62 1029.6 2.2 NE 7.6 0.0 0.0
20:11 19.0 11.6 62 1029.6 3.1 N 7.6 0.0 0.0
20:12 18.9 11.5 62 1029.6 4.5 NW 7.6 0.0 0.0
20:13 18.9 11.5 62 1029.5 4.5 N 6.9 0.0 0.0
20:14 18.9 11.5 62 1029.4 3.8 NW 6.9 0.0 0.0
20:15 18.8 11.4 62 1029.6 3.8 NE 6.9 0.0 0.0
20:16 18.8 11.4 62 1029.6 3.8 NE 6.0 0.0 0.0
20:17 18.7 11.5 63 1029.5 3.1 NW 6.0 0.0 0.0
20:18 18.7 11.5 63 1029.6 3.8 N 6.0 0.0 0.0
20:19 18.7 11.5 63 1029.6 5.4 W 5.4 0.0 0.0
20:20 18.6 11.4 63 1029.8 3.8 NW 5.4 0.0 0.0
20:21 18.6 11.4 63 1029.5 3.8 NW 5.4 0.0 0.0
20:22 18.5 11.3 63 1029.6 6.0 E 6.0 0.0 0.0
20:23 18.5 11.3 63 1029.7 4.5 N 6.0 0.0 0.0
20:24 18.5 11.3 63 1029.6 3.8 N 6.0 0.0 0.0
20:25 18.4 11.2 63 1029.7 3.8 NW 6.0 0.0 0.0
20:26 18.4 11.2 63 1029.7 3.1 NW 6.0 0.0 0.0
20:27 18.4 11.5 64 1029.7 4.5 E 6.0 0.0 0.0
20:28 18.3 11.4 64 1029.7 3.8 NW 6.0 0.0 0.0
20:29 18.3 11.4 64 1029.6 3.8 NW 6.0 0.0 0.0
20:30 18.2 11.3 64 1029.6 3.8 N 6.0 0.0 0.0
20:31 18.2 11.3 64 1029.6 3.1 NE 6.0 0.0 0.0
20:32 18.1 11.2 64 1029.7 3.8 NW 5.4 0.0 0.0
20:33 18.1 11.2 64 1029.7 3.8 NW 5.4 0.0 0.0
20:34 18.1 11.2 64 1029.8 4.5 NE 5.4 0.0 0.0
20:35 18.1 11.2 64 1029.7 4.5 N 5.4 0.0 0.0
20:36 18.1 11.2 64 1029.6 4.5 N 5.4 0.0 0.0
20:37 18.0 11.3 65 1029.7 3.8 N 5.4 0.0 0.0
20:38 18.0 11.3 65 1029.6 3.1 NE 5.4 0.0 0.0
20:39 18.0 11.3 65 1029.6 1.6 NW 4.5 0.0 0.0
20:40 17.9 11.2 65 1029.6 3.1 NW 4.5 0.0 0.0
20:41 17.9 11.2 65 1029.8 3.8 N 4.5 0.0 0.0
20:42 17.8 11.1 65 1029.9 0.7 N 4.5 0.0 0.0
20:43 17.8 11.1 65 1029.7 1.6 N 4.5 0.0 0.0
20:44 17.7 11.0 65 1030.0 3.1 SE 4.5 0.0 0.0
20:45 17.7 11.0 65 1029.8 3.1 SE 4.5 0.0 0.0
20:46 17.6 11.0 65 1029.8 3.1 SW 3.8 0.0 0.0
20:47 17.6 11.0 65 1029.9 3.1 N 3.8 0.0 0.0
20:48 17.5 11.1 66 1029.6 4.5 NE 4.5 0.0 0.0
20:49 17.5 11.1 66 1029.9 4.5 NW 4.5 0.0 0.0
20:50 17.4 11.9 70 1029.6 2.2 NW 4.5 0.0 0.0
20:51 17.4 11.9 70 1029.8 2.2 NW 4.5 0.0 0.0
20:52 17.3 11.8 70 1030.0 3.8 NE 4.5 0.0 0.0
20:53 17.3 11.8 70 1029.8 2.2 NW 4.5 0.0 0.0
20:54 17.2 11.7 70 1029.9 5.4 W 5.4 0.0 0.0
20:55 17.2 11.7 70 1029.9 2.2 N 5.4 0.0 0.0
20:56 17.1 11.6 70 1030.1 3.8 NW 5.4 0.0 0.0
20:57 17.1 11.6 70 1029.9 2.2 N 5.4 0.0 0.0
20:58 17.0 11.5 70 1030.0 1.6 N 5.4 0.0 0.0
20:59 17.0 11.5 70 1029.9 2.2 N 5.4 0.0 0.0
21:00 16.9 11.4 70 1029.8 2.2 NW 5.4 0.0 0.0
21:01 16.9 11.4 70 1030.0 2.2 NW 5.4 0.0 0.0
21:02 16.9 11.4 70 1030.0 2.2 NW 5.4 0.0 0.0
21:03 16.9 11.4 70 1029.7 2.2 NW 5.4 0.0 0.0
21:04 16.9 11.4 70 1029.9 2.2 NW 3.8 0.0 0.0
21:05 16.9 11.4 70 1029.7 2.2 NW 3.8 0.0 0.0
21:06 16.9 11.4 70 1029.8 2.2 NW 2.2 0.0 0.0
21:07 16.6 11.3 71 1029.9 3.1 N 3.1 0.0 0.0
21:08 16.5 11.2 71 1029.8 4.5 N 4.5 0.0 0.0
21:09 16.5 11.2 71 1029.8 4.5 N 4.5 0.0 0.0
21:10 16.5 11.2 71 1029.9 5.4 N 5.4 0.0 0.0
21:11 16.4 11.1 71 1029.8 3.1 N 5.4 0.0 0.0
21:12 16.4 11.1 71 1029.9 1.6 N 5.4 0.0 0.0
21:13 16.4 11.1 71 1029.7 1.6 N 5.4 0.0 0.0
21:14 16.3 11.0 71 1029.9 2.2 N 5.4 0.0 0.0
21:15 16.3 11.3 72 1030.0 2.2 N 5.4 0.0 0.0
21:16 16.3 11.3 72 1029.9 1.6 N 5.4 0.0 0.0
21:17 16.3 11.3 72 1029.9 2.2 NW 5.4 0.0 0.0
21:18 16.2 11.2 72 1029.8 0.7 N 5.4 0.0 0.0
21:19 16.2 11.2 72 1030.0 2.2 NNE 5.4 0.0 0.0
21:20 16.1 11.1 72 1030.0 2.2 NE 5.4 0.0 0.0
21:21 16.1 11.1 72 1030.0 2.2 NW 3.1 0.0 0.0
21:22 16.0 11.0 72 1030.0 3.1 NW 3.1 0.0 0.0
21:23 16.0 11.0 72 1030.0 3.1 N 3.1 0.0 0.0
21:24 16.0 11.0 72 1030.0 3.1 N 3.1 0.0 0.0
21:25 16.0 11.0 72 1029.9 3.1 NE 3.1 0.0 0.0
21:26 15.9 11.1 73 1030.0 3.1 SE 3.8 0.0 0.0
21:27 15.9 11.1 73 1029.8 3.8 N 3.8 0.0 0.0
21:28 15.8 11.0 73 1029.7 2.2 N 3.8 0.0 0.0
21:29 15.8 11.0 73 1029.8 2.2 N 3.8 0.0 0.0
21:30 15.8 11.0 73 1029.6 5.4 NW 5.4 0.0 0.0
21:31 15.8 11.0 73 1030.0 3.8 N 5.4 0.0 0.0
21:32 15.7 11.1 74 1029.9 4.5 NW 5.4 0.0 0.0
21:33 15.7 11.1 74 1029.9 2.2 W 5.4 0.0 0.0
21:34 15.7 11.1 74 1029.9 3.1 N 5.4 0.0 0.0
21:35 15.7 11.1 74 1029.7 3.1 NE 5.4 0.0 0.0
21:36 15.7 11.1 74 1029.7 3.1 N 5.4 0.0 0.0
21:37 15.6 11.0 74 1029.8 2.2 NW 5.4 0.0 0.0
21:38 15.6 11.0 74 1029.9 4.5 N 5.4 0.0 0.0
21:39 15.6 11.2 75 1029.8 5.4 NW 5.4 0.0 0.0
21:40 15.6 11.2 75 1029.9 5.4 NW 5.4 0.0 0.0
21:41 15.6 11.2 75 1029.8 2.2 NW 5.4 0.0 0.0
21:42 15.5 11.1 75 1029.7 3.8 NE 5.4 0.0 0.0
21:43 15.5 11.1 75 1029.8 2.2 N 5.4 0.0 0.0
21:44 15.5 11.1 75 1029.9 2.2 N 5.4 0.0 0.0
21:45 15.5 11.1 75 1029.8 2.2 N 5.4 0.0 0.0
21:46 15.4 11.2 76 1030.1 4.5 E 5.4 0.0 0.0
21:47 15.4 11.2 76 1030.0 4.5 N 5.4 0.0 0.0
21:48 15.4 11.2 76 1029.6 3.1 N 5.4 0.0 0.0
21:49 15.4 11.2 76 1029.9 3.1 NE 5.4 0.0 0.0
21:50 15.4 11.2 76 1029.8 2.2 NE 4.5 0.0 0.0
21:51 15.4 11.2 76 1029.8 2.2 N 4.5 0.0 0.0
21:52 15.3 11.1 76 1029.9 1.6 NW 4.5 0.0 0.0
21:53 15.3 11.3 77 1029.9 2.2 E 4.5 0.0 0.0
21:54 15.3 11.3 77 1030.0 2.2 N 4.5 0.0 0.0
21:55 15.3 11.3 77 1029.9 1.6 N 4.5 0.0 0.0
21:56 15.2 11.2 77 1029.9 1.6 N 4.5 0.0 0.0
21:57 15.2 11.2 77 1029.8 2.2 N 3.1 0.0 0.0
21:58 15.2 11.2 77 1030.0 3.1 NW 3.1 0.0 0.0
21:59 15.2 11.2 77 1029.9 3.1 N 3.1 0.0 0.0
22:00 15.2 11.2 77 1029.8 2.2 NE 3.1 0.0 0.0
22:01 15.2 11.2 77 1029.8 2.2 N 3.1 0.0 0.0
22:02 15.1 11.3 78 1029.8 3.8 NW 3.8 0.0 0.0
22:03 15.1 11.3 78 1029.9 3.8 W 3.8 0.0 0.0
22:04 15.1 11.3 78 1029.9 4.5 N 4.5 0.0 0.0
22:05 15.1 11.3 78 1029.9 3.8 N 4.5 0.0 0.0
22:06 15.1 11.3 78 1029.9 3.8 W 4.5 0.0 0.0
22:07 15.1 11.5 79 1029.8 1.6 N 4.5 0.0 0.0
22:08 15.1 11.5 79 1029.7 3.1 NE 4.5 0.0 0.0
22:09 15.0 11.4 79 1029.8 2.2 E 4.5 0.0 0.0
22:10 15.0 11.4 79 1030.0 3.8 N 4.5 0.0 0.0
22:11 15.0 11.4 79 1029.8 3.8 NE 4.5 0.0 0.0
22:12 15.0 11.4 79 1029.7 2.2 N 4.5 0.0 0.0
22:13 15.0 11.4 79 1029.8 2.2 NE 4.5 0.0 0.0
22:14 15.0 11.4 79 1029.9 3.8 NW 3.8 0.0 0.0
22:15 15.0 11.4 79 1029.9 2.2 W 3.8 0.0 0.0
22:16 15.0 11.4 79 1029.7 2.2 NE 3.8 0.0 0.0
22:17 15.0 11.4 79 1029.7 2.2 NE 3.8 0.0 0.0
22:18 15.0 11.4 79 1030.0 3.1 N 3.8 0.0 0.0
22:19 15.0 11.4 79 1029.8 3.1 N 3.8 0.0 0.0
22:20 15.0 11.4 79 1029.9 3.1 N 3.8 0.0 0.0
22:21 15.0 11.4 79 1029.9 1.6 W 3.8 0.0 0.0
22:22 14.9 11.3 79 1029.9 2.2 NE 3.8 0.0 0.0
22:23 14.9 11.3 79 1030.0 3.1 N 3.8 0.0 0.0
22:24 14.9 11.3 79 1029.9 2.2 N 3.8 0.0 0.0
22:25 14.9 11.3 79 1030.0 3.1 N 3.8 0.0 0.0
22:26 14.9 11.5 80 1029.9 3.1 N 3.8 0.0 0.0
22:27 14.9 11.5 80 1029.9 3.1 N 3.1 0.0 0.0
22:28 14.9 11.5 80 1029.9 2.2 W 3.1 0.0 0.0
22:29 14.9 11.5 80 1029.8 3.8 N 3.8 0.0 0.0
22:30 14.9 11.5 80 1030.0 3.8 N 3.8 0.0 0.0
22:31 14.9 11.5 80 1029.9 3.1 NW 3.8 0.0 0.0
22:32 14.9 11.5 80 1030.0 1.6 NW 3.8 0.0 0.0
22:33 14.9 11.5 80 1030.1 0.7 N 3.8 0.0 0.0
22:34 14.9 11.5 80 1029.9 1.6 N 3.8 0.0 0.0
22:35 14.8 11.4 80 1030.0 2.2 NE 3.8 0.0 0.0
22:36 14.8 11.4 80 1030.0 2.2 W 3.8 0.0 0.0
22:37 14.8 11.4 80 1030.0 2.2 N 3.8 0.0 0.0
22:38 14.8 11.4 80 1029.9 2.2 NE 3.8 0.0 0.0
22:39 14.8 11.4 80 1030.0 2.2 N 3.8 0.0 0.0
22:40 14.8 11.4 80 1029.9 1.6 NE 3.8 0.0 0.0
22:41 14.8 11.4 80 1030.1 2.2 NW 3.1 0.0 0.0
22:42 14.7 11.3 80 1029.8 2.2 N 3.1 0.0 0.0
22:43 14.7 11.3 80 1029.9 3.1 NW 3.1 0.0 0.0
22:44 14.7 11.3 80 1029.9 2.2 N 3.1 0.0 0.0
22:45 14.7 11.3 80 1029.9 3.8 N 3.8 0.0 0.0
22:46 14.7 11.3 80 1029.8 2.2 NW 3.8 0.0 0.0
22:47 14.7 11.3 80 1029.9 3.1 NW 3.8 0.0 0.0
22:48 14.7 11.5 81 1029.9 2.2 N 3.8 0.0 0.0
22:49 14.6 11.4 81 1029.7 1.6 NE 3.8 0.0 0.0
22:50 14.6 11.4 81 1029.8 2.2 NW 3.8 0.0 0.0
22:51 14.6 11.4 81 1029.7 1.6 N 3.8 0.0 0.0
22:52 14.6 11.4 81 1029.7 3.1 N 3.8 0.0 0.0
22:53 14.6 11.4 81 1030.0 2.2 NE 3.8 0.0 0.0
22:54 14.6 11.4 81 1029.9 2.2 N 3.8 0.0 0.0
22:55 14.6 11.4 81 1029.9 3.1 N 3.8 0.0 0.0
22:56 14.6 11.4 81 1029.8 3.1 NE 3.1 0.0 0.0
22:57 14.6 11.4 81 1030.1 1.6 NE 3.1 0.0 0.0
22:58 14.6 11.4 81 1029.8 3.1 N 3.1 0.0 0.0
22:59 14.6 11.4 81 1029.9 2.2 N 3.1 0.0 0.0
23:00 14.6 11.4 81 1029.9 2.2 N 3.1 0.0 0.0
23:01 14.6 11.4 81 1029.7 2.2 N 3.1 0.0 0.0
23:02 14.6 11.4 81 1029.9 2.2 N 3.1 0.0 0.0
23:03 14.6 11.4 81 1030.1 2.2 N 3.1 0.0 0.0
23:04 14.6 11.4 81 1029.8 2.2 N 3.1 0.0 0.0
23:05 14.6 11.4 81 1030.0 2.2 N 3.1 0.0 0.0
23:06 14.6 11.4 81 1029.9 2.2 N 3.1 0.0 0.0
23:07 14.5 11.3 81 1029.7 3.1 NE 3.1 0.0 0.0
23:08 14.5 11.3 81 1029.7 3.8 N 3.8 0.0 0.0
23:09 14.5 11.3 81 1029.8 1.6 N 3.8 0.0 0.0
23:10 14.5 11.5 82 1029.8 1.6 N 3.8 0.0 0.0
23:11 14.5 11.5 82 1029.8 1.6 N 3.8 0.0 0.0
23:12 14.5 11.5 82 1029.7 2.2 N 3.8 0.0 0.0
23:13 14.5 11.5 82 1029.8 3.1 N 3.8 0.0 0.0
23:14 14.5 11.5 82 1029.7 0.7 NW 3.8 0.0 0.0
23:15 14.5 11.5 82 1029.8 0.7 NW 3.8 0.0 0.0
23:16 14.5 11.5 82 1029.8 2.2 N 3.8 0.0 0.0
23:17 14.5 11.5 82 1029.7 2.2 NE 3.8 0.0 0.0
23:18 14.4 11.4 82 1029.7 1.6 N 3.8 0.0 0.0
23:19 14.4 11.4 82 1029.7 1.6 SW 3.1 0.0 0.0
23:20 14.4 11.4 82 1029.8 2.2 NW 3.1 0.0 0.0
23:21 14.4 11.4 82 1029.8 2.2 NW 3.1 0.0 0.0
23:22 14.4 11.4 82 1029.6 2.2 NE 3.1 0.0 0.0
23:23 14.4 11.4 82 1029.8 3.1 N 3.1 0.0 0.0
23:24 14.4 11.4 82 1029.8 2.2 N 3.1 0.0 0.0
23:25 14.4 11.4 82 1029.6 3.1 NW 3.1 0.0 0.0
23:26 14.4 11.4 82 1029.8 2.2 NE 3.1 0.0 0.0
23:27 14.4 11.4 82 1029.8 2.2 NE 3.1 0.0 0.0
23:28 14.4 11.4 82 1029.9 2.2 N 3.1 0.0 0.0
23:29 14.4 11.4 82 1029.9 3.8 N 3.8 0.0 0.0
23:30 14.4 11.4 82 1029.6 3.8 N 3.8 0.0 0.0
23:31 14.4 11.4 82 1029.9 3.8 N 3.8 0.0 0.0
23:32 14.4 11.4 82 1029.9 3.8 N 3.8 0.0 0.0
23:33 14.4 11.4 82 1029.8 3.8 NE 3.8 0.0 0.0
23:34 14.4 11.4 82 1030.1 3.8 NE 3.8 0.0 0.0
23:35 14.4 11.6 83 1029.7 2.2 W 3.8 0.0 0.0
23:36 14.4 11.6 83 1029.6 2.2 NW 3.8 0.0 0.0
23:37 14.4 11.6 83 1029.8 3.1 N 3.8 0.0 0.0
23:38 14.4 11.6 83 1029.9 3.8 NW 3.8 0.0 0.0
23:39 14.4 11.6 83 1029.8 3.8 NE 3.8 0.0 0.0
23:40 14.4 11.6 83 1029.8 3.1 NW 3.8 0.0 0.0
23:41 14.4 11.6 83 1029.8 2.2 N 3.8 0.0 0.0
23:42 14.4 11.6 83 1029.7 2.2 N 3.8 0.0 0.0
23:43 14.4 11.6 83 1029.6 1.6 NW 3.8 0.0 0.0
23:44 14.4 11.6 83 1029.5 3.1 N 3.8 0.0 0.0
23:45 14.4 11.6 83 1029.4 3.8 N 3.8 0.0 0.0
23:46 14.4 11.6 83 1029.7 2.2 NW 3.8 0.0 0.0
23:47 14.4 11.6 83 1029.9 2.2 NE 3.8 0.0 0.0
23:48 14.4 11.6 83 1029.7 2.2 NE 3.8 0.0 0.0
23:49 14.4 11.6 83 1029.6 1.6 N 3.8 0.0 0.0
23:50 14.4 11.6 83 1029.7 4.5 N 4.5 0.0 0.0
23:51 14.4 11.6 83 1029.5 4.5 N 4.5 0.0 0.0
23:52 14.4 11.6 83 1029.6 4.5 NE 4.5 0.0 0.0
23:53 14.4 11.6 83 1029.7 3.1 S 4.5 0.0 0.0
23:54 14.4 11.6 83 1029.6 3.1 NE 4.5 0.0 0.0
23:55 14.4 11.6 83 1029.8 2.2 N 4.5 0.0 0.0
23:56 14.4 11.6 83 1029.6 2.2 N 4.5 0.0 0.0
23:57 14.4 11.6 83 1029.8 3.1 N 4.5 0.0 0.0
23:58 14.4 11.6 83 1029.5 3.1 NE 4.5 0.0 0.0
23:59 14.4 11.6 83 1029.6 3.1 NW 4.5 0.0 0.0

 

 

UK - WEATHER STATION TOPSITES - UK World Weather Websites

Copyright © Carnkie Weather 2009 - 2022.